     2              OBSERVATION DATA    GPS                 RINEX VERSION / TYPE
teqc 2000Feb29 20021016 17:29:31UTC                         PGM / RUN BY / DATE
                                                            COMMENT
L2: 1 -> 1; 5 -> 5; 60 -> 9                                 COMMENT
L2: 1 -> 1; 5 -> 5; 60 -> 9                                 COMMENT
L2: 1 -> 1; 5 -> 5; 60 -> 9                                 COMMENT
L2: 1 -> 1; 5 -> 5; 60 -> 9                                 COMMENT
L2: 1 -> 1; 5 -> 5; 60 -> 9                                 COMMENT
Original Marker Name: COY1                                  COMMENT
Campaign Name: Yolo County Subsidence 2002                  COMMENT
4-Character Station Name: COY1                              COMMENT
6-Character Antenna Code: TRMCMP                            COMMENT
Vertical Measurement Point: BPA                             COMMENT
Vertical Offset to Rinex Ref. Point: 0.0000                 COMMENT
Radial Measurement Point: RRP                               COMMENT
Radial Offset to Rinex Ref. Point: 0.0000                   COMMENT
Antenna Height from Field Measurement: 2.0000 m             COMMENT
Additional Antenna Identification Info.:                    COMMENT
Model 22020.00+GP                                           COMMENT
Original XYZ: -2622444.2790 -4247393.4117 3956931.1743      COMMENT
New XYZ position is based on association with SCEC monument COMMENT
E1F8X7U7+0011. Position of that monument is believed to be  COMMENT
valid to within 1 m horizontally; vertical accuracy         COMMENT
should be no worse than 3-times this value.                 COMMENT
                                                            COMMENT
Revised Rinex header created by UCSD GPS archive for        COMMENT
GSAC on 27-Jun-2003 (2003:178) 16:24:17 GMT                 COMMENT
For assistance contact dagnew@ucsd.edu                      COMMENT
or anderson@python.ucsd.edu                                 COMMENT
                                                            COMMENT
COY DUMP                                                    MARKER NAME
COY1                                                        MARKER NUMBER
-Unknown- YOLO_COUNTY                                       OBSERVER / AGENCY
14631 TRIMBLE 4000 SSI NP 7.19; SP 3.04                     REC # / TYPE / VERS
50490 TR GEOD L1/L2 GP                                      ANT # / TYPE
 -2622442.8923 -4247391.9485  3956926.9589                  APPROX POSITION XYZ
        2.0000        0.0000        0.0000                  ANTENNA: DELTA H/E/N
     1     1     0                                          WAVELENGTH FACT L1/2
     7    C1    L1    L2    P1    P2    S1    S2            # / TYPES OF OBSERV
     0                                                      INTERVAL
  2002     7    15    18    46    0.000000                  TIME OF FIRST OBS
  2002     7    15    19    30   30.000000                  TIME OF LAST OBS
                                                            END OF HEADER
 02  7 15 18 46  0.0000000  0  8G 3G 9G14G15G17G18G21G31
  21752542.4454      16774.20957
        26.7504
  23595866.9144      17558.99956
        12.5004
  21259515.4224        927.18457
        27.0004
  22011081.8834      43467.87157
        22.2504
  22745335.2194      45887.43056
        13.5004
  21863164.8284      17677.09958
        28.2504
  21093120.5234      22750.02258
        29.5004
  22823122.9924       8578.13356
        17.0004
 02  7 15 18 46 15.0000000  0  8G 3G 9G14G15G17G18G21G31
  21762200.5944      67529.37547
        26.7504
  23601529.1334      47316.70545
        11.2504
  21259902.6254       2962.70147
        27.0004
  22024947.2194     116328.28847
        22.5004
  22759966.2734     122772.31546
        14.0004
  21875846.9304      84323.14447
        27.2504
  21100414.3284      61079.05348
        29.0004
  22825938.9224      23373.21246
        18.0004
 02  7 15 18 46 30.0000000  0  8G 3G 9G14G15G17G18G21G31
  21771973.6174     118885.30547
        26.7504
  23607306.3984      77681.94745
        10.5004
  21260400.7034       5578.82447       866.71557                  21260405.5904
        27.2504         26.7504
  22038915.8834     189733.65447        -4.55556                  22038922.6454
        23.0004         20.5004
  22774699.1954     200194.60046     16122.99656                  22774707.0394
        13.7504         13.7504
  21888625.2424     151473.57847
        26.7504
  21107805.5944      99921.58948      6081.53457                  21107811.1024
        29.0004         26.5004
  22828868.9064      38770.03246      2434.46756                  22828876.1294
        18.2504         16.2504
 02  7 15 18 46 45.0000000  0  8G 3G 9G14G15G17G18G21G31
  21781853.7504     170805.65747     37770.01756                  21781860.0554
        26.7504         24.5004
  23613193.4534     108618.78945      6468.72455                  23613200.6414
        10.0004         10.0004
  21261001.9064       8739.65447      3329.73447                  21261006.7704
        27.0004         27.0004
  22052981.5314     263647.68647     57590.74346                  22052988.3054
        23.0004         20.7504
  22789528.5084     278118.11646     76842.56646                  22789536.7034
        15.2504         13.7504
  21901492.5944     219092.14947     38669.54956                  21901497.6334
        27.0004         23.0004
  21115287.7114     139241.12948     36720.15347                  21115293.2304
        28.7504         26.7504
  22831906.3364      54732.46946     14872.76746                  22831912.9224
        18.0004         15.7504
 02  7 15 18 47  0.0000000  0  8G 3G 9G14G15G17G18G21G31
  21791833.1564     223249.33447     78635.19646                  21791839.4024
        26.2504         24.2504
  23619182.5394     140086.55345     30989.06745                  23619189.2894
        11.0004         10.5004
  21261699.3524      12404.55447      6185.53147                  21261704.3204
        27.2504         26.7504
  22067136.1954     338029.47947    115550.53846                  22067142.7464
        23.2504         20.5004
  22804443.6174     356501.83446    137920.71446                  22804451.7304
        14.2504         13.5004
  21914441.3364     287137.91447     91692.19546                  21914446.2814
        27.7504         23.0004
  21122853.1564     178996.80848     67698.60347                  21122858.7464
        29.2504         27.0004
  22835043.4384      71219.93146     27720.16246                  22835050.0824
        17.5004         15.5004
 02  7 15 18 47 15.0000000  0  8G 3G 9G14G15G17G18G21G31
  21801905.4694     276178.09847    119878.36946                  21801911.6454
        27.0004         24.2504
  23625265.3834     172047.31846     55893.60445                  23625272.3014
        12.0004         11.0004
  21262485.6094      16535.59147      9404.55147                  21262490.5434
        27.7504         27.0004
  22081371.8284     412840.86947    173845.09446                  22081378.5084
        22.7504         20.5004
  22819439.3054     435307.61046    199327.74446                  22819447.1134
        13.2504         13.5004
  21927463.9224     355572.61947    145017.92046                  21927469.0434
        27.0004         23.0004
  21130494.1414     219150.42348     98987.12847                  21130499.8014
        29.0004         27.0004
  22838273.3524      88194.52946     40947.13546                  22838279.8094
        17.5004         15.7504
 02  7 15 18 47 30.0000000  0  8G 3G 9G14G15G17G18G21G31
  21812063.6024     329561.51447    161475.81546                  21812069.8484
        26.0004         24.5004
  23631434.9384     204470.86945     81158.72745                  23631442.8054
        11.7504         11.2504
  21263354.3594      21102.70947     12963.37447                  21263359.2584
        27.2504         27.2504
  22095684.3054     488051.44247    232450.70346                  22095691.3634
        23.2504         20.2504
  22834511.3134     514505.12746    261040.03146                  22834519.4614
        14.5004         13.5004
  21940555.0314     424365.82447    198622.99646                  21940560.1054
        27.7504         22.7504
  21138205.3284     259671.74848    130562.18747                  21138210.9304
        29.5004         27.2504
  22841590.5704     105626.03746     54530.15246                  22841597.1214
        17.0004         16.0004
 02  7 15 18 47 45.0000000  0  8G 3G 9G14G15G17G18G21G31
  21822303.9534     383372.57247    203406.49446                  21822310.0354
        26.7504         24.0004
  23637688.7814     237330.59146    106763.69945                  23637696.1804
        12.2504         11.7504
  21264301.7424      26079.29148     16841.26347                  21264306.6294
        28.2504         27.2504
  22110066.9774     563634.20347    291346.31746                  22110073.6214
        22.7504         20.2504
  22849650.7504     594067.44546    323036.57146                  22849658.5944
        13.5004         13.2504
  21953709.1254     493490.67347    252486.50046                  21953714.1764
        27.5004         22.7504
  21145981.2894     300533.86648    162402.79647                  21145986.6564
        29.7504         27.2504
  22844989.7894     123487.80646     68448.44446                  22844996.3984
        17.7504         16.0004
 02  7 15 18 48  0.0000000  0  8G 3G 9G14G15G17G18G21G31
  21832621.0554     437589.60647    245653.51046                  21832627.1374
        26.5004         24.0004
  23644020.4144     270605.18746    132691.98046                  23644028.5044
        13.5004         12.2504
  21265322.3364      31444.02147     21021.59947                  21265327.2234
        27.7504         27.5004
  22124516.6724     639567.66847    350515.22146                  22124523.3284
        22.7504         20.0004
  22864855.6644     673972.83546    385300.45246                  22864864.6214
        13.0004         13.0004
  21966922.3444     562925.52747    306591.56246                  21966927.1374
        27.2504         23.0004
  21153817.7664     341715.20348    194492.15347                  21153823.1914
        29.7504         27.2504
  22848466.3054     141758.59346     82685.43946                  22848473.0084
        17.7504         16.0004
 02  7 15 18 48 15.0000000  0  8G 3G 9G14G15G17G18G21G31
  21843011.4224     492191.86147    288200.70446                  21843017.4804
        26.5004         24.0004
  23650428.6094     304274.15846    158927.55646                  23650436.0664
        14.2504         12.2504
  21266413.1954      37176.54548     25488.53147                  21266418.1994
        28.2504         27.7504
  22139029.0394     715831.22747    409941.34346                  22139035.7894
        22.2504         19.7504
  22880123.1804     754200.83846    447815.71246                  22880131.4454
        13.2504         13.2504
  21980189.8754     632649.53247    360921.93646                  21980194.7734
        26.7504         22.5004
  21161710.9454     383195.20548    226814.23447                  21161716.5594
        29.2504         27.0004
  22852017.3054     160417.90046     97225.17446                  22852024.3404
        17.7504         15.7504
 02  7 15 18 48 30.0000000  0  8G 3G 9G14G15G17G18G21G31
  21853471.9144     547163.05447    331035.37946                  21853477.9844
        26.0004         23.7504
  23656907.7424     338321.56146    185458.03746                  23656916.1724
        14.2504         12.2504
  21267570.8524      43260.85648     30229.58647                  21267575.9384
        28.0004         28.0004
  22153601.0084     792408.59547    469611.98146                  22153607.5474
        22.0004         19.7504
  22895448.3524     834735.17846    510569.68346                  22895456.8404
        13.2504         13.2504
  21993510.2894     702646.61047    415465.10246                  21993515.3754
        27.0004         22.2504
  21169657.9384     424957.71348    259356.44547                  21169663.5984
        29.0004         27.2504
  22855639.1174     179449.82746    112055.27146                  22855645.9144
        18.0004         15.7504
 02  7 15 18 48 45.0000000  0  8G 3G 9G14G15G17G18G21G31
  21864000.2894     602489.21947    374146.66346                  21864006.3484
        26.0004         23.7504
  23663454.5474     372733.81646    212272.77946                  23663462.3914
        13.5004         12.5004
  21268793.7274      49683.44648     35234.22847                  21268798.6134
        29.0004         28.0004
  22168230.0864     869286.00647    529516.42946                  22168237.3444
        21.2504         19.5004
  22910829.7664     915562.04646    573551.59146                  22910837.7854
        14.2504         13.2504
  22006879.6334     772902.97947    470210.30846                  22006884.6374
        26.7504         22.0004
  21177656.2664     466989.03648    292108.12747                  21177661.8914
        29.2504         27.0004
  22859328.7584     198840.70246    127165.06346                  22859335.5314
        17.5004         16.2504
 02  7 15 18 49  0.0000000  0  8G 3G 9G14G15G17G18G21G31
  21874592.8284     658154.83147    417522.43946                  21874598.9924
        25.2504         23.5004
  23670068.8444     407495.60246    239359.92346                  23670076.5234
        12.5004         12.7504
  21270076.9304      56429.16948     40490.66247                  21270081.8404
        28.2504         28.2504
  22182913.8984     946447.91147    589642.54846                  22182920.9924
        21.5004         19.5004
  22926263.1564     996665.79746    636749.23446                  22926271.6334
        13.7504         13.0004
  22020295.1094     843402.96947    525145.34246                  22020300.1024
        26.5004         21.7504
  21185702.9144     509273.57448    325057.12147                  21185708.4224
        29.5004         27.2504
  22863083.7504     218575.40446    142542.78546                  22863090.0664
        17.5004         15.7504
 02  7 15 18 49 15.0000000  0  8G 3G 9G14G15G17G18G21G31
  21885248.9774     714153.49547    461157.74746                  21885255.0004
        25.2504         23.5004
  23676749.1174     442600.87146    266714.68446                  23676756.0234
        12.5004         12.5004
  21271421.1954      63492.04548     45994.23347                  21271426.0704
        28.7504         28.2504
  22197649.9384    1023888.00847    649985.45646                  22197657.1134
        21.2504         19.7504
  22941748.0314    1078040.22346    700157.82446                  22941755.6174
        13.5004         12.7504
  22033755.9144     914140.35847    580265.36846                  22033760.8484
        26.2504         21.7504
  21193796.3444     551805.05048    358198.52747                  21193801.8284
        29.5004         27.5004
  22866904.0944     238647.81846    158183.64246                  22866910.2934
        17.7504         16.0004
 02  7 15 18 49 30.0000000  0  8G 3G 9G14G15G17G18G21G31
  21895967.0554     770475.82347    505045.25546                  21895973.3244
        25.5004         23.5004
  23683495.0314     478040.59446    294330.07446                  23683502.4884
        14.2504         12.5004
  21272823.6484      70862.99848     51737.86347                  21272828.5474
        28.7504         28.5004
  22212438.1094    1101597.02047    710537.89746                  22212444.8484
        22.0004         19.7504
  22957283.2894    1159676.18046    763770.19246                  22957290.5474
        14.2504         13.2504
  22047260.2814     985105.76647    635563.06946                  22047265.4734
        26.2504         22.0004
  21201934.9304     594574.18748    391525.12847                  21201940.5434
        29.2504         27.0004
  22870785.6174     259048.87046    174080.58046                  22870792.1804
        17.7504         15.7504
 02  7 15 18 49 45.0000000  0  8G 3G 9G14G15G17G18G21G31
  21906744.8204     827113.52747    549178.51246                  21906751.3594
        24.7504         23.5004
  23690300.4144     513806.78746    322199.86546                  23690308.6564
        14.0004         12.2504
  21274283.2664      78533.98348     57715.28547                  21274288.0824
        28.5004         28.5004
  22227275.3914    1179566.75347    771293.49746                  22227281.5664
        22.0004         19.5004
  22972865.7584    1241565.28146    827579.82846                  22972873.4614
        13.5004         13.0004
  22060806.4534    1056291.00747    691032.07746                  22060811.3054
        26.2504         22.0004
  21210117.3834     637572.89248    425030.60947                  21210123.1604
        29.0004         27.0004
  22874729.0704     279770.50446    190227.33346                  22874735.8204
        17.5004         15.5004
 02  7 15 18 50  0.0000000  0  8G 3G 9G14G15G17G18G21G31
  21917581.2034     884057.87847    593550.72246                  21917587.4734
        25.0004         23.2504
  23697166.3364     549891.00746    350317.46646                  23697174.1094
        12.7504         12.5004
  21275798.6954      86496.80048     63920.10747                  21275803.5594
        28.7504         28.5004
  22242160.7664    1257788.65147    832245.58546                  22242167.2464
        22.7504         19.2504
  22988496.1024    1323698.91346    891579.99746                  22988504.2734
        14.5004         12.7504
  22074392.6484    1127687.28847    746665.51846                  22074397.7464
        26.5004         21.7504
  21218341.7584     680792.52948    458708.24647                  21218347.4064
        29.0004         27.0004
  22878731.5314     300804.45146    206617.43246                  22878738.1294
        17.0004         15.5004
 02  7 15 18 50 15.0000000  0  8G 3G 9G14G15G17G18G21G31
  21928474.1174     941301.85347    638156.39446                  21928480.5164
        24.5004         23.2504
  23704092.1334     586286.63246    378677.71546                  23704100.4454
        12.5004         12.0004
  21277368.4454      94744.77948     70347.13747                  21277373.3204
        28.7504         28.7504
  22257092.2274    1336255.77247    893388.75946                  22257098.7544
        22.2504         19.5004
  23004169.7664    1406070.11846    955765.27946                  23004177.7854
        13.5004         13.0004
  22088018.1484    1199287.69547    802458.02546                  22088023.2584
        26.5004         21.7504
  21226607.1094     724226.13248    492552.61347                  21226612.7814
        29.5004         27.2504
  22882792.5164     322143.96646    223245.64646                  22882799.1254
        17.2504         15.7504
 02  7 15 18 50 30.0000000  0  8G 3G 9G14G15G17G18G21G31
  21939422.7584     998837.93247    682989.69046                  21939429.1094
        24.2504         23.2504
  23711075.3364     622986.52246    407275.06445                  23711083.6724
        12.0004         11.7504
  21278990.8284     103270.77148     76990.79547                  21278995.7624
        29.0004         28.7504
  22272069.5944    1414960.80147    954717.31846                  22272076.0044
        22.2504         19.5004
  23019888.9144    1488671.65246   1020130.05146                  23019897.1804
        13.5004         13.0004
  22101680.6334    1271084.97747    858403.94146                  22101685.6724
        26.5004         21.7504
  21234911.3674     767866.39948    526558.01447                  21234916.8874
        29.2504         27.2504
  22886909.4844     343782.08046    240106.53246                  22886915.8954
        16.5004         15.7504
 02  7 15 18 50 45.0010000  0  8G 3G 9G14G15G17G18G21G31
  21950427.0054    1056664.46847    728049.31146                  21950433.1574
        24.5004         23.0004
  23718116.1464     659987.81145    436107.27245                  23718125.6064
        11.2504         11.5004
  21280665.0994     112070.12948     83847.46547                  21280669.8334
        28.7504         28.7504
  22287091.6224    1493903.53947   1016231.10146                  22287098.2434
        22.0004         19.5004
  23035652.0834    1571503.42146   1084674.22446                  23035660.3724
        14.7504         12.7504
  22115380.4274    1343078.46247    914502.74146                  22115385.5714
        26.0004         21.5004
  21243254.8334     811710.99648    560722.63147                  21243260.2244
        29.5004         27.2504
  22891083.2474     365714.89446    257197.05346                  22891090.0564
        16.7504         15.7504
 02  7 15 18 51  0.0010000  0  8G 3G 9G14G15G17G18G21G31
  21961483.9274    1114770.78347    773326.93846                  21961489.8564
        24.2504         23.0004
  23725212.5914     697282.92745    465168.43545                  23725221.5954
        10.0004         10.7504
  21282390.8804     121139.13748     90914.25747                  21282395.6264
        29.0004         29.0004
  22302157.0524    1573070.51847   1077919.61046                  22302163.8024
        21.7504         19.2504
  23051454.8414    1654551.68546   1149387.08846                  23051462.1344
        13.5004         12.7504
  22129115.5284    1415255.55047    970744.60946                  22129120.6494
        26.0004         21.5004
  21251635.3884     855751.07848    595039.57847                  21251640.8494
        29.5004         27.2504
  22895311.3804     387936.83246    274512.87646                  22895318.6144
        16.0004         15.7504
 02  7 15 18 51 15.0010000  0  8G 3G 9G14G15G17G18G21G31
  21972594.4114    1173156.14947    818822.01946                  21972600.5524
        24.5004         23.0004
  23732363.2944     734870.13245    494457.21245                  23732373.0604
         8.7504         11.0004
  21284167.4194     130474.29948     98188.43447                  21284172.2824
        28.7504         28.7504
  22317264.1774    1652462.52247   1139783.48846                  22317271.0484
        21.2504         19.2504
  23067299.8884    1737817.36746   1214269.39946                  23067308.0244
        13.2504         12.7504
  22142884.9274    1487616.49947   1027129.74446                  22142890.1774
        25.5004         21.5004
  21260052.9424     899985.12448    629507.66347                  21260058.5214
        29.0004         27.0004
  22899595.3724     410445.18746    292051.88246                  22899602.5364
        17.0004         15.5004
 02  7 15 18 51 30.0010000  0  8G 3G 9G14G15G17G18G21G31
  21983756.7944    1231815.85747    864530.86646                  21983763.0524
        24.2504         23.0004
  23739573.0284     772745.08545    523970.23945                  23739582.8534
        10.2504         10.7504
  21285993.4194     140071.27148    105666.62547                  21285998.2354
        28.7504         29.0004
  22332414.3494    1732075.03147   1201819.16446                  22332421.3494
        22.0004         19.5004
  23083185.7784    1821295.76346   1279317.42546                  23083193.8334
        14.2504         13.0004
  22156688.8334    1560156.94347   1083654.75146                  22156694.0714
        25.2504         21.2504
  21268506.1924     944408.68248    664123.42247                  21268511.7714
        29.0004         27.2504
  22903932.1304     433235.61046    309810.66946                  22903938.8334
        17.0004         15.5004
 02  7 15 18 51 45.0010000  0  8G 3G 9G14G15G17G18G21G31
  21994970.7474    1290743.82147    910448.74146                  21994977.0054
        24.5004         23.0004
  23746833.2944     810901.95645    553702.88245                  23746841.3254
        10.5004         10.7504
  21287868.3414     149924.29148    113344.32947                  21287873.2984
        28.5004         29.0004
  22347604.3104    1811902.01247   1264021.97646                  22347611.4384
        21.0004         19.5004
  23099110.0914    1904981.06046   1344526.67646                  23099118.4274
        13.2504         12.7504
  22170525.6854    1632870.74747   1140314.83846                  22170530.8994
        25.2504         21.7504
  21276994.7244     989015.89148    698882.28147                  21277000.3134
        29.0004         27.0004
  22908321.3724     456302.29946    327784.74046                  22908327.8414
        16.7504         15.5004
 02  7 15 18 52  0.0010000  0  8G 3G 9G14G15G17G18G21G31
  22006234.9744    1349937.59647    956573.75046                  22006241.1384
        24.2504         23.0004
  23754147.9114     849338.68045    583653.59445                  23754154.1924
        11.2504         11.0004
  21289791.3644     160031.33048    121219.97747                  21289796.2984
        28.5004         28.7504
  22362836.3494    1891941.09747   1326390.05746                  22362843.4074
        22.0004         19.5004
  23115073.8414    1988870.91646   1409895.34046                  23115082.3534
        13.0004         12.5004
  22184395.6144    1705755.67747   1197108.26846                  22184401.0524
        25.7504         21.5004
  21285517.7004    1033804.23348    733782.28347                  21285523.3494
        29.2504         27.0004
  22912762.9744     479643.14446    345972.41846                  22912769.5014
        16.2504         15.5004
 02  7 15 18 52 15.0010000  0  8G 3G 9G14G15G17G18G21G31
  22017548.8884    1409392.82047   1002902.47446                  22017554.8764
        24.5004         22.7504
  23761516.8024     888051.19646    613819.19245                  23761522.9664
        13.5004         10.5004
  21291762.2474     170388.32848    129290.39147                  21291767.2044
        28.2504         28.7504
  22378106.5674    1972188.08547   1388920.13346                  22378114.0364
        22.0004         19.5004
  23131075.6774    2072961.02346   1475420.02446                  23131084.2474
        13.2504         13.0004
  22198296.7314    1778807.32547   1254031.60546                  22198301.9584
        25.5004         21.7504
  21294074.3494    1078769.58048    768820.21847                  21294079.9974
        29.0004         27.0004
  22917256.0674     503254.21846    364370.69146                  22917262.8064
        16.7504         15.5004
 02  7 15 18 52 30.0010000  0  8G 3G 9G14G15G17G18G21G31
  22028912.1064    1469106.61747   1049432.68746                  22028918.3064
        24.5004         22.7504
  23768935.6534     927036.97246    644197.73445                  23768940.8804
        14.2504         10.7504
  21293780.3254     180992.71148    137553.57447                  21293785.2124
        28.2504         28.7504
  22393415.5054    2052640.08547   1451609.97446                  22393422.5634
        21.2504         19.5004
  23147115.6064    2157248.55546   1541098.56046                  23147124.6224
        13.0004         12.7504
  22212229.2864    1852022.74947   1311082.56846                  22212234.5364
        25.2504         21.7504
  21302663.8024    1123909.09648    803993.86747                  21302669.4154
        28.7504         27.0004
  22921800.1774     527132.81346    382977.39646                  22921806.7984
        16.7504         15.5004
 02  7 15 18 52 45.0010000  0  8G 3G 9G14G15G17G18G21G31
  22040323.6224    1529075.36447   1096161.56246                  22040329.7044
        24.5004         22.7504
  23776405.9354     966292.62446    674786.59245                  23776411.2904
        14.7504         11.2504
  21295844.8334     191841.39548    146007.12247                  21295849.6494
        28.2504         28.7504
  22408763.9114    2133293.63247   1514456.85346                  22408770.9584
        21.7504         19.2504
  23163190.9194    2241730.08346   1606928.25046                  23163199.5364
        12.2504         12.5004
  22226192.3804    1925398.52647   1368258.47346                  22226197.4424
        26.2504         22.0004
  21311286.2314    1169219.49848    839300.66647                  21311292.0214
        28.5004         27.0004
  22926394.1774     551275.72346    401790.06346                  22926400.5994
        16.5004         15.5004
 02  7 15 18 53  0.0010000  0  8G 3G 9G14G15G17G18G21G31
  22051784.2164    1589299.04047   1143089.08446                  22051790.2864
        24.7504         22.7504
  23783927.5914    1005818.55646    705586.00845                  23783933.4504
        15.0004         11.5004
  21297955.9424     202934.71648    154651.29547                  21297960.7474
        28.2504         28.7504
  22424149.8414    2214148.78647   1577460.82146                  22424156.7354
        21.5004         19.5004
  23179304.4894    2326405.55846   1672909.07746                  23179313.0604
        12.5004         12.7504
  22240185.9814    1998934.73647   1425559.40746                  22240190.9744
        26.5004         21.5004
  21319941.0914    1214700.72448    874740.57547                  21319946.7864
        28.7504         27.0004
  22931039.3724     575683.33846    420809.01046                  22931045.9114
        17.0004         15.2504
 02  7 15 18 53 15.0010000  0  8G 3G 9G14G15G17G18G21G31
  22063291.3564    1649771.41447   1190210.39546                  22063297.2744
        24.2504         22.7504
  23791498.9194    1045608.81246    736591.42245                  23791505.0134
        14.2504         11.5004
  21300112.0914     214266.90448    163481.60347                  21300116.8724
        28.5004         29.0004
  22439573.6304    2295199.54047   1640617.22546                  22439580.9114
        21.2504         18.7504
  23195453.5604    2411269.02246   1739036.37946                  23195462.5524
        12.2504         13.2504
  22254208.4814    2072625.41247   1482980.68446                  22254213.5094
        26.0004         21.7504
  21328627.6304    1260346.84148    910308.97847                  21328633.3134
        29.5004         27.0004
  22935732.8884     600349.74646    440029.60446                  22935739.8764
        16.5004         15.7504
 02  7 15 18 53 30.0010000  0  8G 3G 9G14G15G17G18G21G31
  22074845.7864    1710490.65047   1237524.06746                  22074851.6814
        24.5004         22.7504
  23799121.3884    1085661.90546    767801.62546                  23799127.2004
        15.2504         12.0004
  21302313.9034     225836.37148    172496.79847                  21302318.5674
        28.7504         29.0004
  22455034.1064    2376444.15947   1703924.67146                  22455041.5754
        21.5004         19.2504
  23211638.2244    2496318.56246   1805308.68946                  23211647.0874
        12.5004         12.7504
  22268260.4034    2146468.67847   1540520.86446                  22268265.3494
        26.2504         22.0004
  21337344.4424    1306156.11748    946004.51647                  21337349.9854
        29.0004         27.0004
  22940475.1144     625273.43646    459450.67546                  22940482.1614
        16.0004         15.5004
 02  7 15 18 53 45.0010000  0  8G 3G 9G14G15G17G18G21G31
  22086446.8644    1771452.76247   1285026.99846                  22086452.9464
        24.5004         22.7504
  23806792.1534    1125974.03046    799213.71545                  23806797.6494
        15.0004         11.7504
  21304559.8564     237639.51848    181694.08047                  21304564.6144
        28.7504         28.7504
  22470529.9814    2457878.72547   1767380.13546                  22470536.9584
        20.5004         19.0004
  23227857.4114    2581550.39445   1871723.03246                  23227866.3334
        11.7504         12.5004
  22282340.7634    2220460.62647   1598176.90246                  22282345.6854
        26.5004         22.5004
  21346092.0214    1352124.73348    981824.21347                  21346097.6694
        28.7504         26.7504
  22945266.0604     650450.63646    479069.29446                  22945273.1424
        16.2504         15.5004
 02  7 15 18 54  0.0010000  0  8G 3G 9G14G15G17G18G21G31
  22098093.7084    1832657.26647   1332718.80346                  22098099.6034
        24.7504         22.5004
  23814511.9584    1166545.03146    830827.47846                  23814517.8294
        14.2504         12.0004
  21306850.4504     249676.19648    191073.33347                  21306855.2434
        29.0004         29.0004
  22486062.8024    2539502.74247   1830983.23346                  22486069.6344
        20.7504         19.0004
  23244111.2164    2666964.06446   1938279.07746                  23244120.2204
        12.5004         12.2504
  22296449.5914    2294600.76747   1655948.43246                  22296454.4784
        27.7504         22.5004
  21354869.8414    1398252.32648   1017767.78447                  21354875.6774
        28.5004         27.0004
  22950106.5674     675881.24846    498885.37546                  22950113.3644
        17.0004         15.5004
 02  7 15 18 54 15.0010000  0  8G 3G 9G14G15G17G18G21G31
  22109786.2864    1894102.19247   1380597.94746                  22109792.2744
        24.5004         22.5004
  23822281.5754    1207373.30646    862641.72245                  23822287.6814
        14.0004         11.7504
  21309185.1224     261944.84348    200633.34647                  21309189.7394
        29.2504         29.2504
  22501630.9894    2621314.39347   1894732.52546                  22501638.1304
        20.5004         18.7504
  23260399.0054    2752557.65346   2004975.31446                  23260407.8924
        12.2504         12.5004
  22310586.4744    2368887.48448   1713834.16346                  22310591.2314
        28.5004         22.7504
  21363677.2864    1444537.09448   1053833.83747                  21363683.1694
        28.5004         26.7504
  22954992.9744     701563.61046    518897.63046                  22954999.5014
        16.7504         15.2504
 02  7 15 18 54 30.0010000  0  8G 3G 9G14G15G17G18G21G31
  22121524.3804    1955788.26547   1428665.00146                  22121530.5094
        24.2504         22.7504
  23830100.3414    1248459.92046    894657.29545                  23830107.8214
        14.0004         11.5004
  21311564.2554     274446.63348    210375.02747                  21311568.7204
        29.5004         29.2504
  22517235.5134    2703314.61947   1958628.76446                  22517242.3844
        20.7504         18.5004
  23276721.5284    2838332.11546   2071812.48646                  23276729.7714
        13.0004         12.5004
  22324750.2634    2443321.54948   1771834.71646                  22324754.8924
        28.2504         22.7504
  21372515.3884    1490979.91448   1090023.05247                  21372521.0244
        28.7504         26.7504
  22959928.3644     727498.81946    539106.89746                  22959935.4234
        16.2504         15.7504
 02  7 15 18 54 45.0010000  0  8G 3G 9G14G15G17G18G21G31
  22133307.6224    2017709.35647   1476915.17646                  22133313.8214
        24.2504         23.0004
  23837966.4664    1289799.03746    926869.63045                  23837973.0054
        14.0004         11.5004
  21313986.5674     287175.84048    220293.91647                  21313991.1614
        29.7504         29.5004
  22532874.0674    2785497.46047   2022667.29246                  22532881.3024
        20.5004         18.7504
  23293077.9424    2924281.47946   2138785.96246                  23293087.0524
        13.5004         12.5004
  22338941.1534    2517896.78247   1829945.26446                  22338946.2164
        27.2504         23.0004
  21381381.9584    1537574.77948   1126330.73747                  21381387.3844
        29.0004         26.7504
  22964910.6144     753681.15246    559508.72546                  22964917.5914
        16.7504         15.5004
 02  7 15 18 55  0.0010000  0  8G 3G 9G14G15G17G18G21G31
  22145135.5284    2079863.85347   1525347.23846                  22145141.6694
        24.5004         22.7504
  23845880.2394    1331389.38746    959277.72545                  23845886.6494
        13.0004         10.7504
  21316451.7084     300131.12148    230388.96547                  21316456.1384
        29.7504         29.7504
  22548547.3494    2867861.28047   2086846.84846                  22548554.3374
        20.2504         18.7504
  23309465.5054    3010404.14446   2205894.46546                  23309474.4154
        12.7504         13.0004
  22353159.0834    2592611.72047   1888164.68346                  22353163.9234
        27.2504         22.7504
  21390277.2784    1584320.26948   1162755.79447                  21390282.8564
        28.5004         27.0004
  22969940.0524     780109.23146    580102.05246                  22969946.4854
        16.7504         15.5004
 02  7 15 18 55 15.0010000  0  8G 3G 9G14G15G17G18G21G31
  22157007.0914    2142249.13447   1573959.12146                  22157013.1034
        24.5004         22.7504
  23853840.7554    1373228.67045    991879.79045                  23853847.6384
        11.5004         11.5004
  21318959.7314     313310.20348    240658.40747                  21318964.4194
        29.7504         29.7504
  22564254.9744    2950403.62047   2151165.51746                  22564262.5134
        20.2504         19.0004
  23325886.7244    3096697.62846   2273136.07746                  23325896.0444
        12.7504         12.5004
  22367403.5284    2667463.91548   1946491.04846                  22367408.3454
        28.5004         22.7504
  21399201.0444    1631214.12148   1199296.45647                  21399206.7514
        29.0004         26.7504
  22975014.8964     806780.96846    600885.24246                  22975021.7394
        16.5004         16.0004
 02  7 15 18 55 30.0010000  0  8G 3G 9G14G15G17G18G21G31
  22168921.9114    2204863.99047   1622749.90046                  22168927.9704
        24.2504         22.7504
  23861850.0444    1415316.03645   1024675.15145                  23861858.2864
        11.7504         11.7504
  21321509.7474     326712.38448    251101.69147                  21321514.2944
        29.5004         29.7504
  22579996.0214    3033123.44547   2215622.48146                  22580003.6654
        20.7504         18.7504
  23342340.3254    3183160.86346   2340509.96546                  23342348.6964
        13.5004         12.5004
  22381673.0284    2742452.35548   2004923.57646                  22381677.9034
        28.2504         23.0004
  21408152.5994    1678255.19848   1235951.84447                  21408158.1424
        28.7504         26.7504
  22980137.4034     833695.33046    621857.48946                  22980144.4274
        17.2504         15.5004
 02  7 15 18 55 45.0010000  0  8G 3G 9G14G15G17G18G21G31
  22180881.3964    2267709.03847   1671720.05046                  22180887.4664
        25.0004         22.5004
  23869906.6384    1457652.37645   1057664.51545                  23869915.1264
        11.5004         11.7504
  21324102.9424     340338.69048    261719.61647                  21324107.5604
        29.7504         29.7504
  22595771.0214    3116021.47947   2280218.30446                  22595778.3374
        20.0004         18.7504
  23358826.8024    3269794.44246   2408016.58446                  23358835.3134
        14.0004         12.7504
  22395968.5444    2817577.74147   2063462.82046                  22395973.6304
        27.2504         22.7504
  21417132.3174    1725444.18448   1272722.48347                  21417137.8964
        29.0004         27.0004
  22985304.7394     860853.31046    643019.56846                  22985311.8334
        16.7504         15.5004
 02  7 15 18 56  0.0010000  0  8G 3G 9G14G15G17G18G21G31
  22192883.2784    2330779.36047   1720865.73046                  22192889.3604
        24.5004         23.0004
  23878010.6224    1500233.12446   1090844.34646                  23878019.3104
        13.0004         12.2504
  21326737.7004     354184.53448    272508.61247                  21326742.2354
        29.7504         30.0004
  22611578.9504    3199092.96447   2344949.29246                  22611586.2554
        20.5004         18.5004
  23375342.9114    3356593.81846   2475652.39146                  23375351.9154
        12.5004         12.0004
  22410289.8334    2892835.36747   2122105.10446                  22410294.9424
        27.2504         22.7504
  21426139.4194    1772776.49348   1309604.79947                  21426145.1034
        29.0004         26.7504
  22990518.3174     888250.37646    664367.94746                  22990525.5054
        17.0004         15.7504
 02  7 15 18 56 15.0010000  0  8G 3G 9G14G15G17G18G21G31
  22204927.5134    2394072.94847   1770185.38646                  22204933.5714
        24.7504         23.0004
  23886159.9424    1543056.51346   1124213.24846                  23886169.1344
        13.2504         12.5004
  21329413.8494     368248.34148    283467.44747                  21329418.4074
        29.5004         29.7504
  22627419.8494    3282336.01847   2409813.96046                  22627426.8374
        20.5004         18.5004
  23391892.2244    3443556.87546   2543415.75245                  23391900.8644
        13.0004         11.7504
  22424635.7784    2968223.19647   2180848.84346                  22424640.7594
        27.7504         23.0004
  21435173.4664    1820250.17648   1346597.28147                  21435179.1854
        28.7504         26.7504
  22995777.2554     915884.77546    685901.26046                  22995783.7714
        17.2504         15.5004
 02  7 15 18 56 30.0010000  0  8G 3G 9G14G15G17G18G21G31
  22217014.2244    2457589.49247   1819678.77846                  22217020.0714
        24.5004         23.0004
  23894353.8414    1586122.49046   1157771.16946                  23894363.1964
        12.2504         12.5004
  21332131.4814     382530.11548    294596.12647                  21332136.0754
        29.5004         30.0004
  22643292.3104    3365750.28446   2474812.04446                  22643299.6264
        19.5004         18.7504
  23408471.4114    3530683.42646   2611306.51646                  23408479.7594
        12.2504         12.2504
  22439006.4894    3043740.94847   2239693.82046                  22439011.3994
        27.7504         23.2504
  21444234.0054    1867865.02048   1383699.75747                  21444239.7944
        28.5004         26.7504
  23001080.6064     943756.48646    707619.49146                  23001087.2984
        17.2504         15.7504
 02  7 15 18 56 45.0010000  0  8G 3G 9G14G15G17G18G21G31
  22229143.2314    2521324.72247   1869342.57146                  22229149.2204
        25.2504         23.0004
  23902594.8804    1629427.16046   1191515.06246                  23902604.0244
        12.7504         12.7504
  21334890.0444     397025.88748    305891.55847                  21334894.7314
        29.2504         30.2504
  22659197.7864    3449331.78747   2539940.43946                  22659205.0324
        20.0004         18.2504
  23425081.6614    3617969.31946   2679321.42245                  23425090.6534
        12.2504         11.7504
  22453400.4354    3119384.46647   2298636.79546                  22453405.5094
        26.7504         22.7504
  21453321.3104    1915617.02448   1420909.10647                  21453326.9114
        29.0004         26.7504
  23006429.6774     971861.63646    729519.63146                  23006436.4154
        18.0004         15.7504
 02  7 15 18 57  0.0010000  0  8G 3G 9G14G15G17G18G21G31
  22241314.2944    2585285.59147   1919182.18546                  22241320.4114
        25.2504         23.0004
  23910882.0834    1672977.85046   1225450.67746                  23910890.7714
        12.7504         13.0004
  21337690.4424     411743.07548    317359.52247                  21337695.0134
        29.5004         30.0004
  22675136.2864    3533087.54647   2605204.62146                  22675143.6144
        20.0004         18.2504
  23441723.4894    3705421.69546   2747466.06145                  23441732.7284
        12.2504         11.7504
  22467820.8724    3195161.01047   2357683.42846                  22467826.0284
        27.7504         23.0004
  21462435.6464    1963513.31048   1458230.88647                  21462441.1774
        28.7504         26.7504
  23011823.2634    1000207.47546    751607.30546                  23011829.7314
        17.5004         15.7504
 02  7 15 18 57 15.0010000  0  8G 3G 9G14G15G17G18G21G31
  22253527.3494    2649467.06447   1969193.71346                  22253533.3964
        24.7504         23.0004
  23919215.8724    1716769.79646   1259574.28246                  23919223.9274
        13.7504         13.5004
  21340532.4034     426676.98248    328996.35247                  21340537.1144
        29.2504         30.0004
  22691106.4584    3617012.63646   2670600.75846                  22691113.7164
        19.5004         18.2504
  23458396.2244    3793035.55646   2815736.55145                  23458404.8994
        12.2504         11.5004
  22482265.0214    3271065.51848   2416829.76946                  22482270.1884
        28.0004         23.0004
  21471576.2634    2011549.12448   1495661.39047                  21471581.9114
        28.5004         26.5004
  23017262.1694    1028789.36146    773878.92446                  23017268.5914
        17.5004         15.7504
 02  7 15 18 57 30.0010000  0  8G 3G 9G14G15G17G18G21G31
  22265782.5364    2713866.40847   2019374.99446                  22265788.6774
        25.0004         23.2504
  23927594.4274    1760800.49946   1293883.93346                  23927602.8804
        13.2504         13.2504
  21343414.9744     441825.23648    340800.21247                  21343419.7084
        29.2504         30.0004
  22707108.5284    3701104.39346   2736126.75346                  22707115.4584
        19.5004         18.0004
  23475098.0054    3880808.40745   2884130.90545                  23475106.2714
        11.5004         11.5004
  22496732.9504    3347095.44147   2476073.84246                  22496738.0714
        27.2504         23.0004
  21480743.0134    2059721.85548   1533198.58247                  21480748.7904
        28.0004         26.5004
  23022745.5674    1057604.87846    796332.58946                  23022751.8724
        18.0004         15.7504
 02  7 15 18 57 45.0010000  0  8G 3G 9G14G15G17G18G21G31
  22278078.3804    2778480.95247   2069723.96946                  22278084.3804
        25.2504         23.0004
  23936018.2314    1805067.73146   1328377.90246                  23936027.3294
        13.0004         13.0004
  21346337.9424     457185.63348    352769.37747                  21346342.7944
        29.0004         30.0004
  22723142.1774    3785360.35546   2801780.70146                  22723149.6814
        19.7504         18.2504
  23491830.3174    3968737.54645   2952647.06845                  23491838.9114
        11.0004         11.2504
  22511224.0834    3423248.14847   2535413.59346                  22511229.0994
        26.5004         22.7504
  21489935.8804    2108028.84748   1570840.38447                  21489941.5994
        28.5004         26.7504
  23028272.6614    1086651.63146    818966.43646                  23028278.9664
        17.7504         16.2504
 02  7 15 18 58  0.0010000  0  8G 3G 9G14G15G17G18G21G31
  22290414.8254    2843309.82347   2120239.95146                  22290420.9194
        25.0004         23.2504
  23944486.8564    1849570.78446   1363055.59846                  23944495.9544
        13.5004         13.5004
  21349300.8724     472757.62548    364903.42247                  21349305.8294
        28.2504         30.0004
  22739206.7164    3869779.64146   2867561.91846                  22739213.8684
        19.5004         18.0004
  23508593.0284    4056822.10545   3021284.34345                  23508601.0834
        11.2504         10.7504
  22525738.5754    3499522.90247   2594848.44046                  22525743.7674
        26.7504         22.7504
  21499153.5284    2156469.44848   1608586.31247                  21499159.3174
        28.2504         26.7504
  23033844.2314    1115929.16046    841780.10546                  23033850.8644
        17.7504         16.0004
 02  7 15 18 58 15.0010000  0  8G 3G 9G14G15G17G18G21G31
  22302791.9584    2908353.45547   2170923.27846                  22302798.1104
        24.7504         23.0004
  23953000.3804    1894310.41246   1397917.66246                  23953009.8534
        12.7504         13.2504
  21352304.5754     488542.13848    377203.06247                  21352309.4504
        28.5004         30.2504
  22755302.1064    3954362.89446   2933470.89846                  22755309.2714
        19.5004         17.5004
  23525384.7864    4145062.94345   3090043.35745                  23525394.9384
        11.2504         10.7504
  22540276.6304    3575920.32847   2654378.88446                  22540281.6344
        26.7504         22.5004
  21508397.2784    2205044.32848   1646436.86247                  21508403.0094
        28.2504         26.5004
  23039459.6774    1145438.15546    864774.14746                  23039466.0524
        17.7504         15.7504
 02  7 15 18 58 30.0010000  0  8G 3G 9G14G15G17G18G21G31
  22315210.2784    2973611.80347   2221773.91446                  22315216.5834
        24.7504         23.0004
  23961558.4814    1939286.88746   1432964.26646                  23961566.9934
        12.7504         13.0004
  21355348.8804     504539.42848    389668.50847                  21355353.7084
        28.2504         30.0004
  22771428.9894    4039110.19546   2999507.71846                  22771436.6574
        19.2504         18.0004
  23542206.3254    4233459.90845   3158924.03845                  23542215.4114
        11.5004         10.7504
  22554838.2164    3652440.41647   2714004.90446                  22554843.5714
        26.7504         22.2504
  21517666.2864    2253753.79048   1684392.28947                  21517672.1104
        28.5004         26.5004
  23045118.7314    1175178.93346    887948.79546                  23045125.5754
        17.5004         16.5004
 02  7 15 18 58 45.0010000  0  8G 3G 9G14G15G17G18G21G31
  22327668.6224    3039080.27147   2272788.28846                  22327674.8684
        25.0004         23.0004
  23970161.9584    1984496.10446   1468192.23346                  23970170.4934
        12.5004         13.0004
  21358432.7714     520745.39048    402296.55347                  21358437.6104
        28.5004         30.0004
  22787586.8024    4124017.21546   3065668.97646                  22787594.1184
        19.5004         17.7504
  23559056.3494    4322008.69045   3227923.01745                  23559066.0914
        10.7504         11.0004
  22569421.8024    3729078.93747   2773723.21446                  22569427.0174
        26.0004         22.0004
  21526960.1224    2302593.17948   1722448.95347                  21526965.8534
        28.2504         26.5004
  23050821.6384    1205147.29346    911300.78546                  23050828.8374
        18.0004         16.5004
 02  7 15 18 59  0.0010000  0  8G 3G 9G14G15G17G18G21G31
  22340167.0214    3104760.01347   2323967.28846                  22340173.1494
        24.7504         23.0004
  23978809.1064    2029939.39046   1503602.59346                  23978818.4624
        12.0004         12.5004
  21361556.5674     537161.33448    415088.22747                  21361561.2904
        28.5004         30.0004
  22803774.4354    4209085.15047   3131955.64446                  22803781.8454
        20.0004         17.7504
  23575935.6614    4410710.34445   3297041.14045                  23575944.2904
        11.0004         10.7504
  22584028.4034    3805837.02147   2833534.68346                  22584033.6304
        25.7504         21.7504
  21536278.6304    2351563.83248   1760607.89947                  21536284.5134
        28.0004         26.5004
  23056567.9424    1235344.64946    934831.21146                  23056574.7164
        18.2504         16.2504
 02  7 15 18 59 15.0010000  0  8G 3G 9G14G15G17G18G21G31
  22352705.9664    3170652.98747   2375312.44846                  22352712.3174
        24.7504         23.2504
  23987502.0674    2075618.98345   1539197.07846                  23987510.8134
        11.7504         12.7504
  21364720.8174     553789.67448    428045.39547                  21364725.5404
        28.5004         30.0004
  22819993.6464    4294315.96346   3198369.21546                  22820001.0564
        19.7504         17.7504
  23592844.2314    4499567.07345   3366280.08545                  23592853.5284
        10.7504         11.0004
  22598657.7474    3882716.69847   2893440.90746                  22598662.9624
        24.7504         21.7504
  21545623.0284    2400668.01148   1798870.90347                  21545628.8644
        28.2504         26.5004
  23062358.7164    1265773.30746    958541.87546                  23062365.1734
        18.2504         16.2504
 02  7 15 18 59 30.0010000  0  8G 3G 9G14G15G17G18G21G31
  22365285.0674    3236757.62747   2426822.53846                  22365291.2084
        24.7504         23.2504
  23996239.3174    2121533.79546   1574974.86846                  23996248.9894
        12.0004         12.5004
  21367925.0994     570629.26648    441167.18247                  21367929.8454
        28.0004         29.7504
  22836243.3964    4379708.17947   3264908.55346                  22836250.7354
        20.0004         17.7504
  23609783.1464    4588577.48245   3435638.75745                  23609792.4424
        10.7504         11.2504
  22613310.5284    3959716.64847   2953440.84546                  22613315.6854
        25.0004         21.5004
  21554992.3104    2449904.14848   1837236.71647                  21554998.1464
        28.5004         26.7504
  23068192.6694    1296432.01646    982431.78846                  23068198.6344
        18.2504         16.0004
 02  7 15 18 59 45.0020000  0  8G 3G 9G14G15G17G18G21G31
  22377905.3614    3303074.69747   2478498.15446                  22377911.6074
        25.2504         23.2504
  24005020.1894    2167683.51245   1610935.68846                  24005030.1074
        11.0004         12.0004
  21371169.3854     587678.08948    454452.00047                  21371174.1434
        28.0004         29.7504
  22852523.6274    4465264.16046   3331575.49446                  22852530.8504
        19.5004         17.5004
  23626750.7444    4677743.96145   3505119.07245                  23626759.7364
        11.2504         11.2504
  22627986.6434    4036838.51447   3013535.77846                  22627991.9284
        25.0004         21.2504
  21564386.8544    2499272.27148   1875705.38147                  21564392.4904
        28.5004         26.7504
  23074070.7444    1327319.55646   1006500.01146                  23074077.1194
        18.5004         16.5004
 02  7 15 19  0  0.0020000  0  8G 3G 9G14G15G17G18G21G31
  22390564.5494    3369600.79247   2530336.65646                  22390570.7714
        25.0004         23.2504
  24013846.8544    2214067.59145   1647079.11246                  24013857.0764
        10.5004         12.0004
  21374454.3544     604939.55148    467902.51647                  21374459.1004
        28.5004         29.7504
  22868834.3544    4550977.90146   3398365.37946                  22868841.8344
        19.2504         17.7504
  23643748.0414    4767060.05846   3574715.95545                  23643758.4634
        12.0004         11.2504
  22642684.8464    4114077.48747   3073721.96946                  22642690.2134
        24.7504         21.2504
  21573806.3224    2548771.36748   1914276.10747                  21573811.9364
        28.7504         26.7504
  23079992.0414    1358437.60146   1030747.86246                  23079998.5684
        18.2504         16.2504
 02  7 15 19  0 15.0020000  0  8G 3G 9G14G15G17G18G21G31
  22403264.0104    3436337.15447   2582338.99546                  22403270.2794
        24.5004         23.2504
  24022718.1824    2260686.31345   1683405.42145                  24022728.2874
        10.7504         11.7504
  21377779.1044     622411.98848    481517.42547                  21377783.9324
        28.2504         30.0004
  22885176.0184    4636852.14146   3465280.32846                  22885183.2294
        19.5004         17.5004
  23660772.8384    4856528.77945   3644431.79645                  23660782.0764
        11.7504         11.5004
  22657405.3144    4191435.72147   3134001.08546                  22657410.5884
        24.2504         21.0004
  21583250.6894    2598402.04548   1952949.35547                  21583256.3504
        28.7504         26.7504
  23085957.1664    1389785.31146   1055174.66146                  23085963.7874
        17.7504         16.2504
 02  7 15 19  0 30.0020000  0  8G 3G 9G14G15G17G18G21G31
  22416002.9714    3503279.84147   2634502.10846                  22416009.3814
        24.7504         23.2504
  24031634.6504    2307536.12345   1719911.75446                  24031643.1624
        11.5004         12.0004
  21381143.7134     640091.86548    495293.97847                  21381148.4244
        28.7504         30.0004
  22901546.8544    4722883.08346   3532317.38246                  22901554.3814
        18.7504         17.7504
  23677825.9554    4946146.31945   3714263.56045                  23677835.4634
        11.5004         11.7504
  22672147.5104    4268909.53247   3194370.26746                  22672152.6664
        23.2504         20.7504
  21592719.3384    2648160.40648   1991722.10647                  21592724.9864
        28.7504         27.0004
  23091965.4554    1421359.16846   1079777.68246                  23091971.9824
        18.2504         16.2504
 02  7 15 19  0 45.0020000  0  8G 3G 9G14G15G17G18G21G31
  22428781.2444    3570430.67347   2686827.41446                  22428787.5724
        25.0004         23.0004
  24040593.9324    2354618.90445   1756599.64045                  24040602.3964
        11.5004         11.7504
  21384547.7684     657981.26248    509233.79547                  21384552.5144
        28.0004         29.7504
  22917948.5804    4809072.51446   3599477.94046                  22917955.9434
        19.0004         17.5004
  23694908.3544    5035914.38445   3784212.64345                  23694917.2994
        11.5004         11.2504
  22686912.4244    4346500.54847   3254830.78046                  22686917.8144
        22.7504         20.5004
  21602212.9164    2698048.27048   2030595.76247                  21602218.5534
        29.5004         27.0004
  23098017.0964    1453161.07246   1104558.40246                  23098023.0844
        17.7504         16.0004
 02  7 15 19  1  0.0020000  0  8G 3G 9G14G15G17G18G21G31
  22441599.0804    3637789.53447   2739314.82346                  22441605.5964
        24.5004         23.0004
  24049597.7134    2401934.91745   1793469.25246                  24049605.5684
        11.7504         12.0004
  21387991.7524     676080.59548    523337.19047                  21387996.5214
        28.0004         29.7504
  22934380.1894    4895420.65446   3666762.14646                  22934387.6234
        19.2504         17.2504
  23712019.7834    5125833.19445   3854279.18845                  23712028.7994
        11.7504         11.5004
  22701700.9084    4424209.08147   3315382.84846                  22701706.4044
        24.2504         20.7504
  21611730.8384    2748065.89648   2069570.52547                  21611736.2994
        29.2504         27.0004
  23104111.6744    1485191.45846   1129517.15746                  23104118.7564
        17.0004         16.5004
 02  7 15 19  1 15.0020000  0  8G 3G 9G14G15G17G18G21G31
  22454457.7444    3705360.30347   2791967.35346                  22454464.1784
        25.2504         23.2504
  24058646.1114    2449488.31745   1830523.86446                  24058654.4824
        11.2504         12.0004
  21391476.7294     694394.02747    537607.42047                  21391481.4044
        27.7504         29.7504
  22950842.5024    4981931.35146   3734173.03446                  22950849.9824
        19.2504         17.5004
  23729160.1664    5215906.56645   3924466.15045                  23729169.4754
        11.5004         11.5004
  22716511.3694    4502039.04047   3376029.54946                  22716516.8304
        23.7504         20.2504
  21621274.3614    2798217.10448   2108649.39147                  21621279.7404
        29.5004         27.0004
  23110251.6744    1517454.27746   1154657.03546                  23110258.5184
        17.2504         16.2504
 02  7 15 19  1 30.0020000  0  8G 3G 9G14G15G17G18G21G31
  22467355.5964    3773138.27247   2844781.32646                  22467361.7714
        25.5004         23.2504
  24067740.2134    2497274.85645   1867760.12046                  24067748.7604
        11.2504         12.2504
  21395001.4324     712917.31447    552041.17147                  21395006.2364
        27.7504         30.0004
  22967335.4324    5068600.12046   3801707.08946                  22967342.4674
        19.5004         17.2504
  23746330.0414    5306130.07046   3994770.12645                  23746338.8814
        12.2504         11.2504
  22731343.5254    4579986.02747   3436767.44346                  22731349.1864
        22.7504         20.2504
  21630842.6434    2848497.39248   2147828.83247                  21630848.1504
        29.5004         27.0004
  23116434.6354    1549945.41346   1179974.82446                  23116441.3144
        17.7504         16.2504
 02  7 15 19  1 45.0020000  0  8G 3G 9G14G15G17G18G21G31
  22480293.3464    3841126.62947   2897759.24846                  22480299.5214
        25.2504         22.7504
  24076878.8694    2545297.96646   1905180.70946                  24076887.6504
        12.2504         12.2504
  21398567.0184     731653.94647    566641.16947                  21398571.7404
        27.7504         30.0004
  22983858.4004    5155430.29546   3869366.91846                  22983865.5644
        19.2504         17.0004
  23763527.4004    5396507.15346   4065193.73845                  23763536.4284
        12.0004         11.5004
  22746199.4554    4658053.24847   3497599.01346                  22746204.8574
        22.5004         19.5004
  21640435.2994    2898910.29748   2187111.61247                  21640440.8544
        29.0004         27.0004
  23122661.4164    1582668.40446   1205473.27346                  23122668.4754
        18.0004         16.2504
 02  7 15 19  2  0.0020000  0  8G 3G 9G14G15G17G18G21G31
  22493270.4084    3909323.18147   2950899.40146                  22493276.8894
        24.7504         23.2504
  24086062.3144    2593555.77446   1942784.20045                  24086070.8964
        12.2504         11.7504
  21402172.7294     750602.28448    581406.13047                  21402177.5684
        28.0004         29.7504
  23000411.8774    5242419.80746   3937150.90146                  23000419.4634
        18.5004         17.0004
  23780754.6504    5487035.63846   4135735.37145                  23780762.9864
        12.2504         11.5004
  22761078.1504    4736238.71847   3558522.73446                  22761083.7754
        23.5004         19.7504
  21650053.7754    2949453.96948   2226496.29247                  21650059.4004
        29.2504         27.0004
  23128932.2294    1615621.33646   1231150.88946                  23128938.2054
        18.0004         16.2504
 02  7 15 19  2 15.0020000  0  8G 3G 9G14G15G17G18G21G31
  22506287.2054    3977725.56947   3004199.94146                  22506293.6504
        25.2504         23.2504
  24095288.9864    2642046.10045   1980568.86945                  24095297.3694
        11.2504         11.7504
  21405818.1974     769760.23647    596334.42747                  21405823.1314
        27.5004         29.7504
  23016995.0724    5329566.44346   4005057.31946                  23017002.3544
        18.0004         16.7504
  23798009.6894    5577713.16545   4206393.11145                  23798018.2134
        11.5004         11.7504
  22775978.2604    4814540.20147   3619536.85146                  22775984.0614
        22.7504         19.5004
  21659696.3464    3000125.99948   2265980.98847                  21659701.8304
        29.5004         27.0004
  23135246.7364    1648802.09046   1257006.05146                  23135252.6194
        18.7504         16.2504
 02  7 15 19  2 30.0020000  0  8G 3G 9G14G15G17G18G21G31
  22519342.6664    4046334.09347   3057661.10646                  22519349.1584
        24.7504         23.0004
  24104560.9944    2690769.57745   2018535.22046                  24104570.1154
        11.7504         12.0004
  21409503.7214     789128.41947    611426.53647                  21409508.6544
        27.5004         29.7504
  23033608.4004    5416870.61546   4073086.50446                  23033615.7404
        18.2504         17.2504
  23815293.1894    5668540.29445   4277167.42945                  23815301.8184
        11.2504         11.5004
  22790900.4084    4892958.21447   3680641.77346                  22790906.0924
        22.2504         19.5004
  21669363.1434    3050926.89948   2305566.10147                  21669368.4984
        29.0004         27.0004
  23141604.2054    1682211.25846   1283039.16646                  23141610.8384
        18.2504         16.7504
 02  7 15 19  2 45.0020000  0  8G 3G 9G14G15G17G18G21G31
  22532438.6504    4115153.23747   3111286.39646                  22532445.1194
        24.5004         22.7504
  24113878.4554    2739731.06645   2056687.01646                  24113886.6154
        11.7504         12.7504
  21413230.6114     808711.73847    626686.29447                  21413235.5454
        27.7504         29.7504
  23050253.3544    5504336.93046   4141242.01746                  23050260.8224
        18.7504         16.7504
  23832607.0334    5759521.59345   4348061.86745                  23832616.7054
        11.5004         11.2504
  22805846.1824    4971497.32547   3741841.05846                  22805851.5374
        22.7504         19.2504
  21679055.9944    3101861.63548   2345255.51147                  21679061.5614
        29.7504         27.0004
  23148005.6824    1715853.80046   1309254.14746                  23148012.2914
        18.2504         16.7504
 02  7 15 19  3  0.0020000  0  8G 3G 9G14G15G17G18G21G31
  22545573.7754    4184178.36847   3165072.19246                  22545579.9754
        24.7504         22.7504
  24123240.4794    2788926.27446   2095020.92446                  24123247.6664
        13.0004         12.5004
  21416997.2444     828506.01247    642110.41747                  21417002.2954
        27.7504         29.5004
  23066927.9164    5591960.95246   4209520.41346                  23066935.0104
        19.2504         16.7504
  23849948.8144    5850652.44345   4419072.83945                  23849958.0764
        11.2504         11.2504
  22820813.9554    5050153.01447   3803131.17246                  22820819.6744
        23.2504         19.2504
  21688773.1584    3152925.83648   2385045.79647                  21688778.6544
        29.5004         27.2504
  23154451.2684    1749725.38946   1335647.60646                  23154458.4324
        18.2504         16.7504
 02  7 15 19  3 15.0020000  0  8G 3G 9G14G15G17G18G21G31
  22558748.5024    4253409.01947   3219018.12646                  22558754.7714
        25.2504         22.7504
  24132645.5334    2838354.91645   2133536.74746                  24132654.1974
        11.7504         12.0004
  21420804.0644     848511.05747    657698.78647                  21420808.9284
        27.7504         29.7504
  23083631.9714    5679742.27646   4277921.39646                  23083639.4044
        18.7504         17.2504
  23867318.6194    5941932.62945   4490200.19345                  23867328.4904
        11.0004         11.0004
  22835804.0964    5128924.96147   3864511.88646                  22835809.4514
        23.7504         19.5004
  21698514.7604    3204119.10348   2424936.65047                  21698520.1504
        29.2504         27.2504
  23160940.3074    1783825.74446   1362219.31846                  23160947.1784
        18.0004         17.0004
 02  7 15 19  3 30.0020000  0  8G 3G 9G14G15G17G18G21G31
  22571961.6354    4322846.59147   3273125.30846                  22571967.8224
        24.7504         22.5004
  24142096.3304    2888018.73046   2172235.82146                  24142105.4754
        12.0004         12.5004
  21424651.1824     868728.64047    673452.76747                  21424656.1744
        27.7504         29.7504
  23100366.4164    5767682.40446   4346446.12046                  23100373.9084
        18.7504         17.0004
  23884717.3774    6033363.61445   4561445.03645                  23884726.6624
        10.7504         10.7504
  22850815.7054    5207814.66647   3925984.36746                  22850820.8614
        23.0004         19.5004
  21708281.4474    3255443.04548   2464929.33047                  21708286.9674
        29.2504         27.0004
  23167472.4634    1818156.68646   1388970.71746                  23167479.1894
        17.0004         16.5004
 02  7 15 19  3 45.0020000  0  8G 3G 9G14G15G17G18G21G31
  22585213.7754    4392488.06647   3327391.37546                  22585220.1274
        24.5004         22.7504
  24151592.2294    2937914.90446   2211115.94646                  24151601.3614
        13.0004         12.7504
  21428538.2604     889156.06947    689370.26447                  21428543.1704
        27.7504         29.7504
  23117130.3934    5855778.42446   4415092.30946                  23117137.6394
        18.5004         17.0004
  23902144.2754    6124942.43945   4632805.10645                  23902153.6894
        10.2504          9.7504
  22865850.2054    5286819.33347   3987546.41646                  22865855.2914
        23.5004         19.2504
  21718072.3224    3306894.62348   2505021.47247                  21718078.0414
        29.0004         27.0004
  23174049.6504    1852715.34846   1415899.54846                  23174055.6624
        17.7504         16.7504
 02  7 15 19  4  0.0020000  0  8G 3G 9G14G15G17G18G21G31
  22598505.4004    4462334.87847   3381817.43346                  22598511.8574
        24.7504         22.5004
  24161130.5024    2988045.26645   2250178.56146                  24161138.9434
        11.7504         12.7504
  21432466.1584     909795.37448    705452.85847                  21432470.9984
        28.2504         30.0004
  23133924.5574    5944032.02446   4483861.29446                  23133932.4714
        18.7504         17.0004
  23919599.9474    6216670.75645   4704281.64045                  23919609.1864
        10.5004         10.0004
  22880906.4004    5365940.65147   4049199.37246                  22880911.9084
        23.5004         19.5004
  21727888.0254    3358475.71748   2545214.53047                  21727893.5684
        29.7504         27.0004
  23180669.6504    1887503.65446   1443007.35046                  23180676.8034
        18.0004         16.5004
 02  7 15 19  4 15.0020000  0  8G 3G 9G14G15G17G18G21G31
  22611835.9084    4532386.55547   3436403.12446                  22611842.1664
        24.5004         22.5004
  24170714.9554    3038409.71546   2289423.57946                  24170724.2994
        12.2504         12.7504
  21436433.8614     930646.45247    721700.47747                  21436438.7954
        27.7504         30.0004
  23150748.9714    6032442.86146   4552752.80446                  23150756.5684
        18.7504         17.0004
  23937083.2524    6308548.32445   4775874.48045                  23937092.7714
         9.7504         10.0004
  22895984.7294    5445178.37847   4110943.03246                  22895990.2834
        23.0004         19.2504
  21737728.2684    3410186.01748   2585508.27047                  21737733.5414
        30.0004         27.0004
  23187333.0574    1922521.58446   1470294.04146                  23187339.7834
        18.2504         16.5004
 02  7 15 19  4 30.0020000  0  8G 3G 9G14G15G17G18G21G31
  22625204.3384    4602640.21547   3491146.21246                  22625210.7954
        24.0004         22.5004
  24180342.6354    3089005.61846   2328848.94546                  24180351.5684
        12.2504         12.7504
  21440441.8074     951706.63148    738111.02447                  21440446.5644
        28.5004         30.0004
  23167602.7134    6121008.19846   4621764.68546                  23167610.2294
        19.0004         17.0004
  23954593.5254    6400572.22145   4847581.33545                  23954602.9634
         9.0004          9.7504
  22911084.8384    5524529.77547   4172775.26046                  22911090.0764
        23.0004         19.2504
  21747592.5804    3462022.83948   2625900.60047                  21747597.7254
        29.7504         27.2504
  23194040.5644    1957766.38646   1497757.53346                  23194047.1274
        18.7504         16.7504
 02  7 15 19  4 45.0020000  0  8G 3G 9G14G15G17G18G21G31
  22638611.5104    4673094.87947   3546045.93446                  22638617.5574
        24.2504         22.5004
  24190015.5574    3139832.28346   2368454.11946                  24190025.0764
        13.0004         13.0004
  21444488.8304     972975.39548    754684.10747                  21444493.5644
        28.2504         30.0004
  23184484.3774    6209727.10846   4690896.25546                  23184492.0924
        17.7504         17.0004
  23972134.0964    6492741.79145   4919401.70645                  23972144.6824
         9.7504         10.0004
  22926206.6194    5603993.92847   4234695.36046                  22926212.2684
        23.2504         19.0004
  21757480.5884    3513985.46948   2666390.95847                  21757485.9204
        30.0004         27.0004
  23200790.2994    1993237.47846   1525397.36346                  23200796.8964
        18.5004         16.7504
 02  7 15 19  5  0.0020000  0  8G 3G 9G14G15G17G18G21G31
  22652057.3774    4743751.27947   3601102.83846                  22652064.0214
        24.7504         22.5004
  24199731.5884    3190890.74146   2408239.92046                  24199740.3224
        13.0004         13.0004
  21448576.0254     994453.89548    771420.62047                  21448580.6544
        28.5004         30.0004
  23201397.1044    6298600.53446   4760148.22346                  23201405.0644
        18.2504         17.0004
  23989702.1664    6585057.83545   4991336.17645                  23989711.8614
        10.2504         10.0004
  22941349.4864    5683571.80447   4296704.07146                  22941354.9824
        23.0004         19.2504
  21767392.9634    3566074.84148   2706980.07847                  21767398.3074
        29.7504         27.2504
  23207583.5724    2028935.96946   1553214.37046                  23207590.2404
        18.2504         17.2504
 02  7 15 19  5 15.0020000  0  8G 3G 9G14G15G17G18G21G31
  22665540.4714    4814605.76447   3656314.09946                  22665546.7994
        24.5004         22.2504
  24209490.9794    3242177.64846   2448203.73146                  24209499.6314
        12.7504         13.0004
  21452702.4864    1016138.84248    788318.00447                  21452706.8934
        28.2504         30.0004
  23218338.0024    6387625.00546   4829517.87446                  23218345.3544
        18.2504         16.5004
  24007296.0254    6677516.63945   5063381.93545                  24007306.5644
        10.7504         10.0004
  22956513.8934    5763259.93147   4358798.68546                  22956519.5414
        23.5004         19.2504
  21777328.4474    3618287.58748   2747665.33247                  21777333.9554
        29.5004         27.0004
  23214419.1504    2064858.41146   1581205.89646                  23214426.1044
        18.5004         17.0004
 02  7 15 19  5 30.0020000  0  8G 3G 9G14G15G17G18G21G31
  22679060.2364    4885654.85147   3711676.99746                  22679066.8114
        23.7504         22.2504
  24219293.7524    3293689.76046   2488343.04146                  24219303.4594
        12.2504         13.0004
  21456867.8224    1038027.15948    805373.85047                  21456872.5804
        28.5004         30.2504
  23235307.2214    6476797.19346   4899002.64146                  23235314.4204
        18.7504         16.5004
  24024916.4394    6770115.07445   5135536.50345                  24024926.0764
        10.0004         10.2504
  22971698.5334    5843054.92447   4420976.57246                  22971703.7134
        23.7504         19.7504
  21787287.0644    3670620.52948   2788444.24547                  21787292.5144
        29.5004         27.0004
  23221296.4554    2101001.78546   1609369.57446                  23221302.6074
        18.0004         17.0004
 02  7 15 19  5 45.0020000  0  8G 3G 9G14G15G17G18G21G31
  22692618.4474    4956902.46947   3767194.59546                  22692624.7994
        24.2504         22.2504
  24229138.1354    3345431.36245   2528661.14446                  24229147.4554
        11.0004         12.7504
  21461072.5254    1060122.95448    822591.37747                  21461077.0614
        28.7504         30.5004
  23252304.7914    6566121.09346   4968605.62446                  23252311.9794
        18.5004         16.7504
  24042565.9794    6862857.12745   5207802.96045                  24042576.4474
        10.7504         10.2504
  22986904.4394    5922960.86147   4483240.90246                  22986909.4434
        25.0004         19.5004
  21797269.2684    3723077.65248   2829319.91847                  21797274.6234
        29.7504         27.0004
  23228216.9244    2137370.25146   1637708.65146                  23228223.6744
        18.2504         16.7504
 02  7 15 19  6  0.0020000  0  8G 3G 9G14G15G17G18G21G31
  22706213.7524    5028345.20147   3822864.23346                  22706220.1864
        24.2504         22.5004
  24239028.8544    3397399.26645   2569155.60446                  24239038.5614
        11.7504         12.7504
  21465316.1664    1082423.47648    839968.42747                  21465320.6434
        29.0004         30.5004
  23269330.6434    6655593.50646   5038324.32546                  23269338.0294
        18.2504         16.5004
  24060240.5024    6955739.52945   5280178.76645                  24060249.8934
        10.7504         10.5004
  23002130.7524    6002974.60047   4545589.25146                  23002136.0024
        24.7504         19.7504
  21807275.0104    3775655.83348   2870289.92847                  21807280.2604
        30.2504         27.2504
  23235180.9004    2173960.66446   1666220.67546                  23235187.7444
        18.5004         16.7504
 02  7 15 19  6 15.0020000  0  8G 3G 9G14G15G17G18G21G31
  22719844.8694    5099978.90547   3878682.68646                  22719851.4554
        23.7504         22.5004
  24248959.7054    3449589.50545   2609823.31046                  24248969.8344
        10.7504         12.0004
  21469598.0414    1104924.79248    857501.93947                  21469602.5644
        28.5004         30.2504
  23286384.1274    6745210.28546   5108155.52046                  23286391.5724
        18.5004         16.7504
  24077941.7754    7048758.14445   5352660.74445                  24077950.2404
        11.0004         10.5004
  23017376.2444    6083092.10547   4608018.44946                  23017381.7994
        23.7504         19.5004
  21817302.7604    3828351.05848   2911351.14147                  21817307.9044
        30.2504         27.2504
  23242184.8144    2210769.21546   1694902.67646                  23242191.5064
        18.2504         17.0004
 02  7 15 19  6 30.0020000  0  8G 3G 9G14G15G17G18G21G31
  22733512.9794    5171804.58347   3934650.71746                  22733519.2954
        23.7504         22.2504
  24258932.8614    3502003.49445   2650665.37646                  24258943.5884
        10.5004         12.0004
  21473918.0414    1127628.19748    875192.92347                  21473922.5644
        28.5004         30.5004
  23303465.5574    6834972.61146   5178100.13646                  23303473.6704
        18.2504         16.7504
  24095668.8144    7141914.32945   5425249.88345                  24095678.1004
        11.2504         10.5004
  23032641.7914    6163314.53447   4670529.41346                  23032647.0884
        23.7504         19.5004
  21827352.4474    3881164.57548   2952504.52347                  21827357.6974
        29.5004         27.0004
  23249230.8074    2247797.34046   1723755.77446                  23249237.6154
        18.5004         17.2504
 02  7 15 19  6 45.0020000  0  8G 3G 9G14G15G17G18G21G31
  22747217.4634    5243821.57747   3990767.82646                  22747223.8034
        24.0004         22.2504
  24268948.7834    3554641.02645   2691681.62845                  24268960.0024
         9.7504         11.5004
  21478277.3774    1150533.57348    893041.28947                  21478281.8424
        29.0004         30.7504
  23320574.1274    6924880.08846   5248157.85146                  23320581.8184
        17.7504         16.7504
  24113421.7364    7235207.47045   5497945.74945                  24113431.1154
        11.2504         11.2504
  23047927.6974    6243641.54347   4733121.85846                  23047932.8184
        24.2504         19.5004
  21837424.9004    3934096.27348   2993750.00047                  21837430.4674
        29.0004         27.0004
  23256319.6664    2285044.71246   1752779.71346                  23256325.8654
        19.5004         16.5004
 02  7 15 19  7  0.0020000  0  8G 3G 9G14G15G17G18G21G31
  22760957.1354    5316024.94247   4047030.16846                  22760963.4864
        23.2504         22.0004
  24279007.1274    3607497.34845   2732868.33845                  24279017.1744
        10.0004         11.7504
  21482673.3464    1173636.37348    911043.48947                  21482677.7174
        28.5004         30.7504
  23337709.9004    7014927.84046   5318324.88046                  23337717.6504
        18.0004         16.2504
  24131200.0104    7328632.78545   5570744.60845                  24131209.3424
        11.2504         10.5004
  23063232.2524    6324068.28947   4795792.02846                  23063237.5494
        23.7504         19.5004
  21847518.8384    3987141.27848   3035083.76547                  21847524.5334
        29.0004         27.0004
  23263448.4244    2322506.59246   1781970.80346                  23263454.4124
        19.5004         16.7504
 02  7 15 19  7 15.0020000  0  8G 3G 9G14G15G17G18G21G31
  22774733.0334    5388418.48547   4103440.69246                  22774739.4554
        23.2504         21.7504
  24289109.2054    3660576.52845   2774228.76445                  24289122.1354
        11.0004         11.0004
  21487108.0724    1196940.74148    929202.75947                  21487112.5844
        28.7504         30.5004
  23354872.6114    7105119.77346   5388604.25046                  23354880.4324
        18.0004         16.2504
  24149004.1274    7422194.14445   5643649.48845                  24149014.1864
        11.0004         11.0004
  23078557.0254    6404598.81947   4858543.06346                  23078562.4164
        23.7504         19.0004
  21857636.0414    4040303.63548   3076508.97447                  21857641.4204
        30.2504         27.2504
  23270618.7834    2360187.15646   1811332.28846                  23270625.0644
        19.7504         17.0004
 02  7 15 19  7 30.0020000  0  8G 3G 9G14G15G17G18G21G31
  22788544.6824    5460997.75547   4159995.93646                  22788551.5534
        23.7504         22.0004
  24299250.4244    3713874.36145
        10.5004
  21491580.1274    1220442.58948    947515.90447                  21491584.6394
        28.2504         30.2504
  23372063.0574    7195451.58646   5458992.61546                  23372071.1354
        18.5004         16.2504
  24166833.5884    7515887.25245   5716657.03045                  24166843.6004
        11.2504         10.7504
  23093900.2754    6485228.74447   4921371.54546                  23093905.6894
        23.7504         19.2504
  21867773.8384    4093578.84548   3118022.11647                  21867779.2174
        30.2504         27.2504
  23277829.5884    2398082.16446   1840860.86746                  23277835.9284
        19.7504         17.2504
 02  7 15 19  7 45.0020000  0  8G 3G 9G14G15G17G18G21G31
  22802392.1744    5533765.71847   4216698.22246                  22802398.5614
        23.7504         22.0004
  24309435.1434    3767394.18445
        10.7504
  21496090.7914    1244145.29748    965985.56747                  21496095.3854
        28.5004         30.2504
  23389279.5104    7285926.49446   5529492.49846                  23389287.3074
        18.2504         16.5004
  24184688.3464    7609715.27845   5789769.68045                  24184697.3384
        11.0004         10.7504
  23109263.1744    6565961.31647   4984280.01046                  23109268.2484
        23.7504         19.5004
  21877933.6114    4146970.43748   3159625.95547                  21877939.0494
        29.7504         27.2504
  23285082.6974    2436195.06746   1870559.24846                  23285088.7444
        19.5004         17.0004
 02  7 15 19  8  0.0020000  0  8G 3G 9G14G15G17G18G21G31
  22816273.8694    5606718.01247   4273544.13646                  22816280.3384
        23.0004         22.0004
  24319660.6744    3821131.87245     16766.83455                  24319671.5534
        10.2504         11.2504
  21500638.5184    1268044.85148    984608.61647                  21500642.9364
        28.2504         30.2504
  23406522.6664    7376540.20946   5600100.52546                  23406530.4284
        18.0004         16.5004
  24202568.5574    7703673.91145   5862984.12345                  24202578.3344
        10.7504         11.2504
  23124644.4394    6646792.28147   5047265.15646                  23124649.4674
        23.5004         19.2504
  21888115.0104    4200474.10848   3201317.12447                  21888120.3894
        29.5004         27.2504
  23292375.6974    2474521.79746   1900424.24246                  23292381.7794
        19.7504         17.2504
 02  7 15 19  8 15.0030000  0  8G 3G 9G14G15G17G18G21G31
  22830192.6794    5679859.46747   4330537.44546                  22830199.3584
        23.7504         22.0004
  24329930.0934    3875091.20645     58813.04445                  24329939.2024
        11.5004         11.2504
  21505224.2884    1292143.21848   1003386.58747                  21505228.8474
        28.0004         30.0004
  23423793.6084    7467298.90746   5670821.53946                  23423800.8664
        18.0004         16.0004
  24220475.4444    7797769.73045   5936305.44745                  24220485.5854
        11.5004         10.5004
  23140046.4834    6727727.25547   5110331.35146                  23140051.4054
        24.2504         19.7504
  21898318.7104    4254093.66548   3243098.58747                  21898323.9134
        29.7504         27.2504
  23299710.2574    2513065.15046   1930458.03246                  23299716.0934
        19.5004         17.2504
 02  7 15 19  8 30.0030000  0  8G 3G 9G14G15G17G18G21G31
  22844145.0154    5753178.84647   4387669.40146                  22844151.4254
        23.5004         22.0004
  24340238.6944    3929263.75645    101025.41545                  24340247.5224
        11.2504         11.5004
  21509847.1474    1316435.94348   1022316.00747                  21509851.7064
        28.0004         30.2504
  23441089.4374    7558189.13346   5741645.04046                  23441097.3514
        18.2504         16.2504
  24238403.6714    7891988.47745   6009722.56845                  24238413.7064
        11.0004         10.7504
  23155465.5074    6808754.10147   5173469.13046                  23155470.7104
        24.5004         20.0004
  21908542.5624    4307820.47148   3284963.62747                  21908547.9764
        30.0004         27.2504
  23307084.9914    2551818.69746   1960655.60646                  23307090.8514
        19.7504         17.0004
 02  7 15 19  8 45.0030000  0  8G 3G 9G14G15G17G18G21G31
  22858131.6474    5826679.22847   4444942.39746                  22858137.9404
        23.7504         21.7504
  24350586.9444    3983651.72845    143405.65546                  24350596.0074
        10.5004         12.0004
  21514506.5934    1340923.25247   1041397.04947                  21514511.1514
        27.7504         30.0004
  23458411.3824    7649215.27746   5812574.43546                  23458419.4484
        18.2504         16.2504
  24256356.4604    7986334.92845   6083239.18545                  24256365.2884
        10.0004         10.7504
  23170902.8584    6889876.56347   5236681.40746                  23170907.9914
        25.0004         20.0004
  21918787.0544    4361656.90548   3326914.09047                  21918792.4214
        29.7504         27.0004
  23314499.2654    2590783.71046   1991017.96746                  23314505.3944
        19.5004         17.2504
 02  7 15 19  9  0.0030000  0  8G 3G 9G14G15G17G18G21G31
  22872152.8744    5900360.46047   4502356.31746                  22872159.2724
        23.7504         22.0004
  24360979.1714    4038255.30746    185953.88046                  24360987.9404
        12.2504         12.0004
  21519203.6944    1365605.48247   1060629.97347                  21519208.4404
        27.5004         30.0004
  23475758.8904    7740377.43146   5883609.83046                  23475766.8154
        17.7504         16.2504
  24274335.1404    8080809.10745   6156855.35945                  24274343.5814
        10.5004         10.2504
  23186357.6944    6971094.84147   5299968.35846                  23186362.8044
        24.0004         19.7504
  21929052.7024    4415603.10448   3368950.09147                  21929057.9174
        30.0004         27.2504
  23321954.5774    2629960.28746   2021545.17446                  23321960.4254
        19.5004         17.0004
 02  7 15 19  9 15.0030000  0  8G 3G 9G14G15G17G18G21G31
  22886208.5384    5974223.14147   4559911.60146                  22886215.1714
        23.7504         22.0004
  24371411.5694    4093075.22946    228670.69046                  24371419.2374
        13.0004         12.0004
  21523937.8354    1390483.58547   1080015.52647                  21523942.5814
        27.7504         29.7504
  23493132.4054    7831676.25446   5954751.71346                  23493140.2144
        17.7504         16.0004
  24292337.1714    8175411.80945   6230571.64945                  24292346.6444
        10.0004         10.2504
  23201831.1084    7052409.61047   5363330.49246                  23201836.3824
        23.0004         19.7504
  21939339.5384    4469659.78548   3411072.16947                  21939344.7184
        30.2504         27.5004
  23329449.7804    2669349.36346   2052237.96146                  23329456.1444
        19.5004         17.2504
 02  7 15 19  9 30.0030000  0  8G 3G 9G14G15G17G18G21G31
  22900297.8044    6048263.46147   4617605.32246                  22900304.3784
        23.5004         22.0004
  24381884.7184    4148107.93046    271553.33646                  24381892.3154
        13.2504         12.0004
  21528708.6554    1415554.10647   1099551.01747                  21528713.3084
        27.7504         30.0004
  23510531.2494    7923108.06446   6025997.21646                  23510538.8944
        17.0004         15.7504
  24310363.1714    8270139.23445   6304385.10245                  24310374.4484
         9.2504          9.5004
  23217322.3824    7133817.23447   5426764.98146                  23217327.6324
        22.7504         19.7504
  21949646.6944    4523823.37648   3453277.55547                  21949651.7574
        30.2504         27.2504
  23336985.2264    2708947.32346   2083093.52746                  23336991.1084
        19.5004         17.0004
 02  7 15 19  9 45.0030000  0  8G 3G 9G14G15G17G18G21G31
  22914421.5464    6122483.72847   4675439.26346                  22914427.8974
        24.0004         21.7504
  24392397.2804    4203356.16846    314603.88746                  24392404.9954
        13.2504         12.5004
  21533516.4604    1440819.75247   1119238.55647                  21533521.1834
        27.7504         29.7504
  23527955.8514    8014675.35346   6097348.29846                  23527963.6944
        17.0004         16.0004
  24328414.5224    8364993.83545   6378297.71745                  24328423.4094
        10.5004          9.2504
  23232832.3664    7215320.28047   5490273.81446                  23232837.6634
        23.2504         19.7504
  21959974.4524    4578096.41048   3495568.22647                  21959979.6554
        30.0004         27.2504
  23344560.7804    2748756.89046   2114113.96146                  23344566.8514
        19.7504         17.0004
 02  7 15 19 10  0.0030000  0  8G 3G 9G14G15G17G18G21G31
  22928579.1714    6196881.86247   4733411.80046                  22928585.6044
        24.0004         22.0004
  24402951.3274    4258818.00346    357820.89045                  24402958.5624
        12.7504         11.7504
  21538361.1634    1466278.80247   1139076.79747                  21538365.8394
        27.5004         29.7504
  23545406.8824    8106376.20146   6168803.45246                  23545414.6204
        18.5004         16.2504
  24346488.0224    8459973.78745   6452307.98545                  24346498.5384
         9.2504          9.5004
  23248359.7494    7296916.85247   5553855.53446                  23248365.2334
        23.2504         19.7504
  21970322.7414    4632477.06248   3537942.75647                  21970328.1554
        29.7504         26.7504
  23352176.5224    2788776.29847   2145297.91846                  23352182.3704
        20.0004         17.0004
 02  7 15 19 10 15.0030000  0  8G 3G 9G14G15G17G18G21G31
  22942770.3124    6271456.61647   4791521.97546                  22942776.6874
        23.7504         21.7504
  24413546.6084    4314492.48946    401203.57746                  24413553.7144
        14.0004         12.0004
  21543242.1714    1491930.31647   1159065.00747                  21543246.7764
        27.2504         29.7504
  23562881.6404    8198209.41546   6240361.71546                  23562889.2144
        17.7504         15.7504
  24364585.7264    8555077.82745   6526414.90645                  24364597.6244
         9.5004          9.7504
  23263904.7184    7378605.82147   5617509.25446                  23263909.6634
        23.0004         19.7504
  21980691.0074    4686964.43548   3580400.44747                  21980696.2574
        29.7504         26.7504
  23359831.0544    2829004.63946   2176644.68346                  23359836.9134
        19.7504         17.2504
 02  7 15 19 10 30.0030000  0  8G 3G 9G14G15G17G18G21G31
  22956994.7334    6346206.30847   4849768.45246                  22957001.2724
        24.0004         21.7504
  24424180.6794    4370378.28246    444750.95046                  24424187.8084
        13.2504         12.2504
  21548159.8744    1517773.00047   1179202.18347                  21548164.5034
        27.2504         29.7504
  23580382.1554    8290173.46846   6312021.97846                  23580390.1044
        18.0004         16.2504
  24382707.9604    8650304.54245   6600617.47845                  24382718.5934
        10.0004          9.2504
  23279466.9374    7460385.74847   5681233.83846                  23279472.1514
        23.7504         19.7504
  21991080.0464    4741557.00548   3622940.10847                  21991085.1794
        30.2504         26.7504
  23367526.1014    2869440.44646   2208153.11346                  23367532.0194
        19.7504         17.2504
 02  7 15 19 10 45.0030000  0  8G 3G 9G14G15G17G18G21G31
  22971252.3744    6421130.03047   4908150.53046                  22971258.7024
        24.2504         21.7504
  24434854.8744    4426474.69346    488462.44046                  24434862.0034
        13.0004         12.2504
  21553114.0224    1543806.27947   1199487.87647                  21553118.6754
        27.5004         29.7504
  23597906.7654    8382267.61946   6383783.59146                  23597914.7964
        17.5004         15.7504
  24400850.1874    8745653.04345   6674914.90845                  24400859.9874
         9.2504          9.5004
  23295046.3974    7542255.83747   5745028.68446                  23295051.5894
        23.5004         20.0004
  22001488.2884    4796253.93148   3665561.08647                  22001493.4094
        29.5004         27.0004
  23375259.6554    2910083.06446   2239822.68646                  23375265.7374
        19.2504         17.2504
 02  7 15 19 11  0.0030000  0  8G 3G 9G14G15G17G18G21G31
  22985543.0624    6496228.33147   4966668.65646                  22985549.4724
        24.0004         22.0004
  24445570.4834    4482782.57446    532338.69446                  24445578.2694
        13.0004         12.2504
  21558104.3194    1570031.10647   1219922.82447                  21558108.9484
        27.2504         29.7504
  23615456.9054    8474492.58046   6455647.13246                  23615464.8084
        18.0004         15.7504
  24419018.1474    8841124.03245   6749307.80745                  24419027.8194
         9.2504          9.2504
  23310642.4604    7624216.82747   5808894.37146                  23310648.0624
        22.2504         20.0004
  22011916.4684    4851056.21648   3708264.16647                  22011921.7884
        28.7504         26.5004
  23383033.4604    2950933.48846   2271654.19746                  23383039.6714
        19.5004         16.7504
 02  7 15 19 11 15.0030000  0  8G 3G 9G14G15G17G18G21G31
  22999866.8434    6571499.07447   5025321.14946                  22999873.1594
        24.2504         21.7504
  24456325.2494    4539300.05646    576378.27846                  24456332.6124
        13.0004         12.2504
  21563130.8354    1596445.84547   1240505.75647                  21563135.2294
        27.7504         30.0004
  23633030.8824    8566846.49546   6527611.16946                  23633038.5034
        17.7504         15.7504
  24437209.4684    8936715.59845   6823794.64645                  24437219.9484
        10.0004          9.0004
  23326256.6554    7706266.97247   5872829.52546                  23326262.1284
        23.2504         20.0004
  22022364.8824    4905962.00848   3751047.89847                  22022370.3194
        29.0004         26.5004
  23390847.0384    2991989.88147   2303646.18746                  23390853.1904
        20.0004         17.2504
 02  7 15 19 11 30.0030000  0  8G 3G 9G14G15G17G18G21G31
  23014223.4914    6646943.73947   5084109.16146                  23014229.8544
        24.2504         22.0004
  24467120.8434    4596028.87346    620582.56445                  24467127.7964
        13.5004         11.7504
  21568193.8584    1623052.24747   1261238.04347                  21568198.2764
        27.5004         29.7504
  23650630.9834    8659330.88346   6599676.86146                  23650638.8744
        18.2504         15.7504
  24455422.7104    9032429.41845   6898376.76645                  24455434.1164
         9.2504          9.7504
  23341888.2884    7788407.93647   5936835.44646                  23341893.5734
        24.2504         20.2504
  22032833.2024    4960972.83248   3793913.47147                  22032838.6634
        29.0004         26.2504
  23398698.7654    3033253.95946   2335800.03046                  23398704.7654
        19.7504         17.0004
 02  7 15 19 11 45.0030000  0  8G 3G 9G14G15G17G18G21G31
  23028612.2184    6722559.76347   5143030.71646                  23028618.5814
        23.5004         21.7504
  24477954.7574    4652966.86846    664949.84146                  24477962.9524
        12.5004         12.2504
  21573293.0544    1649848.23448   1282118.04847                  21573297.3084
        28.0004         30.0004
  23668254.0694    8751943.45246   6671842.44846                  23668261.2574
        17.7504         16.2504
  24473659.2964    9128263.04145   6973052.20745                  24473669.4254
         9.7504          9.5004
  23357535.4214    7870637.49147   6000910.39546                  23357540.4604
        22.7504         20.0004
  22043320.9054    5016086.61548   3836859.27147                  22043326.3784
        28.5004         26.2504
  23406590.0154    3074723.63746   2368114.06646                  23406596.1324
        19.5004         17.0004
 02  7 15 19 12  0.0030000  0  8G 3G 9G14G15G17G18G21G31
  23043034.3664    6798345.59347   5202084.58446                  23043040.8004
        23.7504         21.5004
  24488829.6634    4710112.59046    709478.95545                  24488837.4014
        12.5004         11.7504
  21578428.3194    1676832.50448   1303144.76747                  21578432.5154
        28.5004         30.0004
  23685901.5934    8844682.61346   6744106.66846                  23685909.1084
        18.0004         16.0004
  24491919.1324    9224214.87345   7047819.82045                  24491929.1674
        10.5004          9.5004
  23373199.2184    7952953.94847   6065053.06846                  23373204.6674
        22.0004         19.7504
  22053827.8584    5071302.02648   3879884.26147                  22053833.5774
        28.0004         26.0004
  23414520.1794    3116397.32146   2400587.06946                  23414526.3664
        19.7504         17.2504
 02  7 15 19 12 15.0030000  0  8G 3G 9G14G15G17G18G21G31
  23057488.7964    6874305.11647   5261273.80646                  23057494.8544
        24.0004         21.5004
  24499745.0934    4767470.24246    754173.24645                  24499753.1244
        13.2504         11.7504
  21583599.6634    1704009.22548   1324321.45847                  21583603.8354
        28.5004         29.7504
  23703574.8744    8937552.44346   6816472.70946                  23703582.6474
        18.5004         16.0004
  24510201.6714    9320289.06845   7122682.69045                  24510210.8154
        10.7504          9.5004
  23388881.0694    8035361.57947   6129266.77646                  23388886.8354
        21.7504         19.2504
  22064355.4134    5126623.10248   3922991.59447                  22064360.8974
        28.7504         26.2504
  23422490.5934    3158279.48747   2433222.53346                  23422497.2844
        20.0004         17.2504
 02  7 15 19 12 30.0030000  0  8G 3G 9G14G15G17G18G21G31
  23071974.9054    6950429.77947   5320591.70446                  23071981.6674
        23.5004         21.5004
  24510699.4914    4825031.56146    799026.21945                  24510707.0774
        14.0004         11.7504
  21588806.4374    1731370.25148   1345641.75247                  21588810.3624
        28.7504         30.2504
  23721270.3584    9030544.63146   6888934.09346                  23721278.4484
        17.7504         16.0004
  24528503.8274    9416477.24945   7197634.42945                  24528513.5814
         9.2504          9.2504
  23404578.4914    8117852.00847   6193545.01046                  23404584.1514
        21.5004         19.0004
  22074901.4994    5182041.73448   3966174.94347                  22074906.5504
        29.0004         26.5004
  23430498.1874    3200361.91646   2466014.03846                  23430504.4334
        19.7504         17.2504
 02  7 15 19 12 45.0030000  0  8G 3G 9G14G15G17G18G21G31
  23086493.0154    7026723.52447   5380041.35146                  23086499.4484
        23.7504         21.5004
  24521690.1874    4882800.70345    844041.14445                  24521698.2184
        11.7504         11.7504
  21594048.9134    1758919.96748   1367109.08447                  21594052.9214
        28.5004         30.2504
  23738990.2494    9123663.18246   6961493.93846                  23738998.3044
        17.7504         16.2504
  24546832.5694    9512783.41345   7272678.14845                  24546843.9054
        11.0004          9.7504
  23420292.4914    8200429.39447   6257890.98946                  23420298.2224
        21.5004         19.0004
  22085466.1944    5237561.86648   4009437.37947                  22085471.3744
        28.7504         26.0004
  23438545.4524    3242648.69747   2498964.78246                  23438551.7574
        20.2504         17.5004
 02  7 15 19 13  0.0030000  0  8G 3G 9G14G15G17G18G21G31
  23101043.5384    7103185.94447   5439622.42746                  23101050.0544
        23.7504         21.5004
  24532723.2414    4940777.56245    889217.91146                  24532730.1944
        11.5004         12.0004
  21599327.4134    1786658.50948   1388723.54847                  21599331.5854
        28.7504         30.2504
  23756734.1474    9216908.00646   7034152.17646                  23756742.0854
        18.0004         15.7504
  24565182.5544    9609207.47645   7347813.67145                  24565192.7764
        11.5004          9.5004
  23436022.7654    8283093.57147   6322304.60346                  23436028.3904
        21.2504         18.7504
  22096050.3124    5293183.51248   4052778.91947                  22096055.6204
        28.0004         26.0004
  23446630.9444    3285139.81546   2532074.74146                  23446637.6014
        19.7504         17.5004
 02  7 15 19 13 15.0030000  0  8G 3G 9G14G15G17G18G21G31
  23115626.5384    7179820.66147   5499337.76146                  23115632.7494
        23.2504         21.2504
  24543796.9764    4998965.99246    934559.53845                  24543805.5584
        12.5004         11.5004
  21604642.7494    1814589.65848   1410488.09647                  21604646.7454
        29.5004         30.5004
  23774502.8904    9310282.67846   7106911.60646                  23774511.2724
        18.0004         16.2504
  24583551.6874    9705752.98745   7423043.82645                  24583562.4254
         9.2504         10.2504
  23451770.7024    8365848.41347   6386788.87646                  23451776.0814
        21.5004         18.7504
  22106654.8904    5348910.53147   4096202.56946                  22106660.5734
        27.2504         25.5004
  23454756.3434    3327839.10047   2565346.92046                  23454762.9174
        20.0004         17.2504
 02  7 15 19 13 30.0030000  0  8G 3G 9G14G15G17G18G21G31
  23130241.3354    7256622.08647   5559182.99946                  23130247.9794
        23.0004         21.2504
  24554909.8664    5057360.79846    980062.00445                  24554917.5814
        12.7504         11.2504
  21609993.4604    1842708.29048   1432398.73647                  21609997.3274
        29.5004         30.5004
  23792294.4524    9403781.76946   7179767.98546                  23792302.8474
        16.5004         15.7504
  24601947.3584    9802414.68145   7498364.55145                  24601956.8784
        10.2504         10.0004
  23467535.1324    8448688.49747   6451339.55946                  23467540.6754
        22.2504         18.7504
  22117278.8124    5404737.59248   4139704.17246                  22117284.5074
        28.0004         25.5004
  23462920.5624    3370741.44547   2598777.31746                  23462926.5854
        20.0004         17.5004
 02  7 15 19 13 45.0030000  0  8G 3G 9G14G15G17G18G21G31
  23144887.8824    7333590.59947   5619158.43046                  23144894.6554
        22.7504         21.0004
  24566059.8744    5115962.63246   1025725.76945                  24566067.7764
        12.0004         11.7504
  21615380.0074    1871015.03548   1454455.95847                  21615383.8154
        29.2504         30.5004
  23810110.8274    9497405.91046   7252721.78746                  23810119.0694
        16.7504         15.7504
  24620363.9444    9899193.02245   7573776.15245                  24620374.3314
        10.0004          9.0004
  23483315.0074    8531614.36247   6515957.09346                  23483320.4564
        22.0004         19.0004
  22127921.7884    5460665.51648   4183284.36247                  22127927.3314
        28.5004         26.0004
  23471123.0384    3413847.34846   2632366.33946                  23471129.4374
        19.5004         17.5004
 02  7 15 19 14  0.0030000  0  8G 3G 9G14G15G17G18G21G31
  23159565.8974    7410726.05647   5679263.95646                  23159573.0034
        22.0004         21.2504
  24577251.6554    5174771.66846   1071550.98045                  24577260.0034
        12.7504         11.5004
  21620802.4214    1899510.25348   1476660.04247                  21620806.3004
        29.2504         30.7504
  23827951.1714    9591155.31546   7325773.20546                  23827959.2144
        17.2504         15.5004
  24638801.8194    9996088.02945   7649278.65745                  24638810.9404
         9.5004         10.0004
  23499110.8194    8614626.24547   6580641.65546                  23499116.0694
        21.2504         18.7504
  22138583.4834    5516694.33048   4226943.18047                  22138588.9214
        28.5004         26.2504
  23479364.8744    3457157.19147   2666114.26746                  23479370.9214
        20.0004         17.5004
 02  7 15 19 14 15.0030000  0  8G 3G 9G14G15G17G18G21G31
  23174276.2334    7488027.81247   5739499.06746                  23174282.6554
        22.7504         21.0004
  24588482.3194    5233787.43246   1117537.32045                  24588489.3904
        13.2504         11.7504
  21626260.5154    1928193.67348   1499010.77647                  21626264.7104
        29.0004         30.5004
  23845815.6084    9685029.43946   7398921.81446                  23845823.6984
        17.5004         15.5004
  24657261.1944   10093099.33845   7724871.77245                  24657270.4334
         8.5004          9.2504
  23514924.6014    8697723.65647   6645392.85546                  23514930.6014
        22.0004         18.7504
  22149264.6244    5572823.58648   4270680.26347                  22149269.9094
        28.7504         26.2504
  23487644.5854    3500670.43446   2700020.69746                  23487650.9374
        19.5004         17.5004
 02  7 15 19 14 30.0030000  0  8G 3G 9G14G15G17G18G21G31
  23189018.3514    7565498.29947   5799865.64646                  23189025.2804
        22.0004         21.0004
  24599752.2104    5293012.73046   1163686.90145                  24599760.2184
        13.0004         11.2504
  21631755.2574    1957068.15548   1521510.38747                  21631759.2654
        29.2504         30.5004
  23863702.5624    9779030.75746   7472169.52246                  23863711.0384
        16.2504         15.5004
  24675746.5694   10190229.34845   7800557.41945                  24675756.9794
         9.2504          9.0004
  23530754.1554    8780909.33647   6710212.84046                  23530760.0624
        21.2504         18.5004
  22159965.0694    5629056.22148   4314497.90147                  22159970.2964
        28.5004         26.0004
  23495964.3664    3544389.98546   2734087.88346                  23495970.7414
        19.7504         17.5004
 02  7 15 19 14 45.0030000  0  8G 3G 9G14G15G17G18G21G31
  23203792.7414    7643135.47547   5860362.12346                  23203799.1754
        22.7504         21.0004
  24611061.7654    5352445.68346   1209998.29945                  24611069.6444
        12.7504         11.5004
  21637285.9764    1986131.92148   1544157.49747                  21637289.8084
        29.2504         30.5004
  23881614.7724    9873157.30946   7545514.82646                  23881623.0154
        17.0004         15.0004
  24694252.1474   10287476.18145   7876334.06545                  24694263.6474
         9.0004          9.2504
  23546600.4214    8864181.29647   6775100.04846                  23546605.8474
        22.0004         18.2504
  22170684.9294    5685390.40848   4358394.66047                  22170690.1904
        28.0004         26.0004
  23504323.0624    3588314.10146   2768314.46246                  23504329.0154
        19.7504         17.5004
 02  7 15 19 15  0.0030000  0  8G 3G 9G14G15G17G18G21G31
  23218598.2334    7720939.15747   5920988.33446                  23218604.9484
        23.5004         21.0004
  24622411.3584    5412086.42146   1256471.59145                  24622419.2024
        13.0004         11.7504
  21642852.4834    2015385.12948   1566952.22047                  21642856.3864
        29.0004         30.5004
  23899549.7804    9967409.08246   7618957.71046                  23899558.0114
        16.0004         15.2504
  24712777.2964   10384839.87844   7952201.76245                  24712789.7224
         7.2504          9.0004
  23562463.1014    8947539.65547   6840054.58546                  23562468.7614
        21.5004         18.0004
  22181424.3354    5741826.05947   4402370.49147                  22181429.9604
        27.7504         25.7504
  23512720.4214    3632442.67346   2802700.36746                  23512726.1984
        19.7504         17.5004
 02  7 15 19 15 15.0030000  0  8G 3G 9G14G15G17G18G21G31
  23233435.9134    7798912.41947   5981746.69746                  23233442.4054
        22.2504         20.5004
  24633801.2024    5471938.16646   1303109.32345                  24633808.5544
        13.2504         11.7504
  21648456.0464    2044831.25348   1589897.27047                  21648460.0544
        29.0004         30.2504
  23917509.2024   10061789.32646   7692500.67446                  23917518.2654
        15.2504         14.7504
  24731329.6794   10482323.51345   8028162.95345                  24731340.1474
         8.2504          9.7504
  23578341.8744    9030987.71247   6905079.02646                  23578347.6754
        20.2504         18.0004
  22192183.5224    5798366.59947   4446428.05246                  22192189.1714
        27.7504         25.5004
  23521157.2654    3676779.22946   2837248.33546                  23521163.2764
        19.5004         17.5004
 02  7 15 19 15 30.0030000  0  8G 3G 9G14G15G17G18G21G31
  23248305.1874    7877052.70747   6042635.20446                  23248311.5854
        21.7504         20.7504
  24645229.8904    5531998.69046   1349909.73845                  24645237.6404
        13.0004         11.2504
  21654095.3434    2074468.12148   1612990.94847                  21654099.4914
        28.2504         30.0004
  23935493.7884   10156295.67946   7766141.92646                  23935502.1244
        16.0004         14.7504
  24749904.6244   10579924.92645   8104215.88945                  24749915.3624
         9.2504          9.0004
  23594239.0464    9114523.01647   6970171.43046                  23594244.6474
        21.5004         17.7504
  22202962.6714    5855009.57148   4490565.42447                  22202968.2024
        28.7504         26.2504
  23529633.2184    3721321.44046   2871956.55746                  23529639.8044
        19.7504         17.5004
 02  7 15 19 15 45.0030000  0  8G 3G 9G14G15G17G18G21G31
  23263207.0544    7955361.75247   6103655.21146                  23263213.6044
        22.5004         20.7504
  24656698.7184    5592269.97746   1396874.37745                  24656706.0814
        12.5004         11.0004
  21659771.8274    2104297.75748   1636234.83747                  21659775.9994
        28.5004         30.2504
  23953502.2334   10250929.92146   7839882.83646                  23953511.2144
        15.5004         14.7504
  24768497.6084   10677645.67545   8180361.81945                  24768507.2454
         7.5004          8.7504
  23610151.9994    9198147.54347   7035333.38146                  23610157.6714
        20.7504         17.7504
  22213761.5464    5911756.97048   4534784.17847                  22213766.8434
        29.0004         26.5004
  23538149.4604    3766071.36146   2906826.62046                  23538155.9644
        19.7504         17.5004
 02  7 15 19 16  0.0030000  0  8G 3G 9G14G15G17G18G21G31
  23278140.2724    8033837.54547   6164805.15846                  23278146.7184
        21.5004         20.2504
  24668207.7414    5652750.30146   1444001.90745                  24668215.1514
        12.0004         11.7504
  21665484.4914    2134318.55348   1659627.68347                  21665488.5814
        28.5004         30.0004
  23971534.3824   10345690.30146   7913722.01846                  23971543.1984
        15.7504         15.0004
  24787115.1714   10775484.07644   8256599.44445                  24787124.3974
         6.5004          8.2504
  23626081.9134    9281859.62647   7100563.53946                  23626087.6904
        21.7504         17.7504
  22224579.5544    5968607.41948   4579083.22647                  22224584.9214
        28.2504         26.2504
  23546703.6554    3811027.29946   2941857.23046                  23546710.1834
        19.2504         17.5004
 02  7 15 19 16 15.0030000  0  7G 3G 9G14G17G18G21G31
  23293106.0624    8112481.04447   6226085.78046                  23293112.3314
        22.2504         20.2504
  24679757.4294    5713440.96846   1491293.33645                  24679764.6164
        12.7504         11.2504
  21671234.0304    2164531.83548   1683170.51947                  21671238.0974
        28.7504         30.0004
  24805757.5934   10873441.40445   8332929.75245                  24805769.5624
         8.0004          9.0004
  23642028.7654    9365660.44247   7165862.85646                  23642034.6014
        21.5004         18.2504
  22235417.2184    6025561.98548   4623463.40147                  22235423.0654
        28.0004         26.2504
  23555298.0854    3856190.54946   2977049.37246                  23555304.8944
        19.7504         17.5004
 02  7 15 19 16 30.0040000  0  8G 3G 9G14G15G17G18G21G31
  23308104.7154    8191299.11747   6287502.43146                  23308111.3244
        22.0004         20.2504
  24691347.4344    5774347.84746   1538753.27345                  24691355.2304
        12.7504         11.5004
  21677020.7544    2194941.65648   1706866.49947                  21677025.0084
        28.5004         30.0004
  24007674.0594      31679.02656
        16.5004
  24824423.3324   10971525.74145   8409358.95745                  24824434.9024
         8.5004          8.5004
  23657993.4574    9449557.39747   7231237.08246                  23657999.1294
        21.0004         18.0004
  22246276.5124    6082626.43047   4667929.20247                  22246282.1844
        27.7504         26.0004
  23563932.9264    3901566.01146   3012406.88246                  23563939.9494
        19.5004         17.5004
 02  7 15 19 16 45.0040000  0  8G 3G 9G14G15G17G18G21G31
  23323133.9024    8270278.38747   6349044.68646                  23323140.2664
        22.0004         20.7504
  24702975.5984    5835460.17245   1586373.27945                  24702983.3944
        11.7504         11.7504
  21682843.6054    2225541.36548   1730710.44647                  21682847.9304
        28.5004         30.0004
  24025779.5354     126822.22246
        16.7504
  24843106.8244   11069721.31545   8485874.89845                  24843119.1094
         7.5004          8.7504
  23673974.9804    9533536.62147   7296675.41846                  23673979.9614
        22.5004         18.0004
  22257154.3324    6139790.44647   4712472.58047                  22257160.0394
        27.7504         25.7504
  23572606.1444    3947145.00846   3047922.98646                  23572612.8714
        19.5004         17.2504
 02  7 15 19 17  0.0040000  0  8G 3G 9G14G15G17G18G21G31
  23338195.2464    8349427.78747   6410719.51846                  23338201.8094
        22.0004         20.5004
  24714645.4964    5896785.82945   1634159.48945                  24714652.5904
        11.5004         11.7504
  21688703.8244    2256337.14048   1754707.16747                  21688707.9614
        28.5004         30.0004
  24043909.2234     222095.59446
        16.2504
  24861817.6214   11168038.53245   8562485.65145                  24861828.0434
         7.7504          8.2504
  23689973.3554    9617607.70047   7362185.32146                  23689978.9804
        22.2504         18.0004
  22268052.8014    6197061.85448   4757099.64347                  22268058.5554
        28.0004         26.2504
  23581319.4574    3992934.48646   3083603.08946                  23581326.2894
        19.2504         17.5004
 02  7 15 19 17 15.0040000  0  8G 3G 9G14G15G17G18G21G31
  23353289.1294    8428746.06547   6472525.93146                  23353295.6804
        22.0004         20.5004
  24726358.0044    5958323.79746   1682111.15345                  24726365.1094
        13.2504         11.2504
  21694601.4884    2287328.07348   1778855.96847                  21694605.3674
        28.7504         30.0004
  24062063.1684     317497.99946
        15.5004
  24880550.6294   11266476.22645   8639190.24845                  24880561.4734
         8.5004          8.7504
  23705988.2624    9701769.50147   7427765.93446                  23705993.8054
        21.5004         17.7504
  22278971.7854    6254439.66348   4801809.61947                  22278977.1644
        28.7504         26.5004
  23590072.7854    4038933.61546   3119446.57546                  23590079.5704
        19.2504         17.5004
 02  7 15 19 17 30.0040000  0  8G 3G 9G14G15G17G18G21G31
  23368414.9654    8508232.72347   6534463.54946                  23368421.6684
        22.0004         20.7504
  24738108.2384    6020074.00546   1730228.21645                  24738115.1564
        12.5004         11.0004
  21700535.8244    2318514.04048   1803156.74047                  21700539.7504
        28.2504         30.0004
  24080241.9734     413029.14346     44669.97556                  24080250.2854
        15.2504         14.7504
  24899304.4104   11365034.14445   8715988.50145                  24899315.8634
         8.5004          8.7504
  23722020.9264    9786021.93847   7493417.16846                  23722026.1054
        21.2504         17.7504
  22289910.8014    6311923.83548   4846602.47947                  22289916.0864
        29.5004         27.0004
  23598866.0664    4085142.14346   3155453.23146                  23598872.8754
        19.5004         17.5004
 02  7 15 19 17 45.0040000  0  8G 3G 9G14G15G17G18G21G31
  23383573.5984    8587891.91847   6596535.61046                  23383580.1954
        22.0004         20.7504
  24749899.1684    6082040.93445   1778514.15245                  24749905.5314
        11.7504         11.0004
  21706508.2154    2349899.63748   1827613.06747                  21706512.1994
        28.5004         30.0004
  24098447.3634     508693.35146    119213.44546                  24098456.2504
        16.5004         14.5004
  24918083.3244   11463716.63845   8792883.82645                  24918095.3634
         8.5004          8.7504
  23738072.0434    9870369.36947   7559142.41646                  23738077.7154
        21.0004         17.2504
  22300871.0044    6369518.69148   4891481.57947                  22300876.1254
        29.5004         27.0004
  23607700.2234    4131564.60946   3191626.58146                  23607706.5984
        19.7504         17.7504
 02  7 15 19 18  0.0040000  0  8G 3G 9G14G15G17G18G21G31
  23398765.5984    8667723.56047   6658742.05546                  23398772.3944
        21.7504         20.2504
  24761732.2074    6144224.65945   1826968.99145                  24761739.7814
        11.7504         11.0004
  21712518.8244    2381484.97448   1852225.03147                  21712522.8324
        28.5004         30.0004
  24116676.3554     604490.57846    193860.56346                  24116685.0314
        15.7504         14.7504
  24936884.9734   11562523.73145   8869876.31745                  24936895.6414
         8.0004          8.7504
  23754140.7154    9954811.91147   7624941.77946                  23754145.8484
        21.2504         17.5004
  22311851.3874    6427224.29448   4936446.97947                  22311856.9064
        28.5004         26.7504
  23616574.9884    4178201.05646   3227966.67546                  23616581.1874
        19.7504         17.2504
 02  7 15 19 18 15.0040000  0  8G 3G 9G14G15G17G18G21G31
  23413989.4734    8747728.42247   6721083.47446                  23413995.8944
        21.2504         20.2504
  24773607.5274    6206626.20946   1875593.59145                  24773615.7934
        12.0004         11.2504
  21718567.6054    2413271.17548   1876993.52347                  21718571.4614
        28.7504         30.0004
  24134930.6214     700421.84446    268612.14846                  24134939.4614
        15.0004         14.2504
  24955711.9654   11661456.23045   8946966.48545                  24955721.8834
         9.0004          8.7504
  23770228.1994   10039350.51947   7690815.99346                  23770234.0124
        20.2504         17.0004
  22322853.4184    6485041.84348   4981499.60647                  22322859.3244
        28.2504         26.7504
  23625490.2854    4225052.63646   3264474.40046                  23625496.4264
        19.5004         17.0004
 02  7 15 19 18 30.0040000  0  8G 3G 9G14G15G17G18G21G31
  23429247.1604    8827905.76247   6783559.28446                  23429253.8054
        21.5004         20.0004
  24785522.3244    6269245.03945   1924387.48045                  24785529.9344
        11.5004         10.5004
  21724654.4654    2445257.99248   1901918.32547                  21724658.4614
        28.5004         30.0004
  24153212.5664     796486.68446    343467.79946                  24153221.1954
        16.2504         15.0004
  24974562.0434   11760513.61145   9024153.96845                  24974571.3404
         9.2504          8.5004
  23786333.2774   10123984.72247   7756764.70346                  23786338.9024
        20.2504         16.5004
  22333877.1524    6542970.86948   5026639.09547                  22333883.0234
        28.7504         27.0004
  23634447.1914    4272118.86347   3301149.38746                  23634453.2504
        20.2504         17.2504
 02  7 15 19 18 45.0040000  0  8G 3G 9G14G15G17G18G21G31
  23444537.2154    8908256.33647   6846170.09046                  23444543.9064
        21.5004         20.0004
  24797479.5744    6332082.07845   1973351.42445                  24797487.0084
        11.2504         11.2504
  21730779.8164    2477446.46848   1927000.27247                  21730783.8364
        28.5004         30.0004
  24171518.4574     892685.82046    418428.09446                  24171526.1024
        16.0004         14.2504
  24993435.7234   11859696.80645   9101439.49745                  24993445.3244
         9.0004          8.5004
  23802457.2074   10208715.41947   7822788.59546                  23802463.0084
        21.0004         17.2504
  22344922.3794    6601012.10048   5071866.01847                  22344927.9924
        29.5004         27.2504
  23643444.4574    4319400.79247   3337992.44846                  23643450.7384
        20.0004         17.7504
 02  7 15 19 19  0.0040000  0  8G 3G 9G14G15G17G18G21G31
  23459860.7544    8988782.49147   6908917.70646                  23459867.5274
        21.2504         20.5004
  24809479.4574    6395140.07545   2022487.50745                  24809486.9494
        11.5004         11.0004
  21736943.6444    2509839.28948   1952241.44947                  21736947.6644
        28.2504         29.7504
  24189851.0044     989021.91046    493495.11446                  24189859.0594
        16.5004         14.7504
  25012334.9884   11959008.36345   9178825.01245                  25012344.8714
         9.7504          9.2504
  23818600.2234   10293545.28147   7888889.76446                  23818606.0124
        21.5004         17.5004
  22355989.3014    6659168.35548   5117182.57647                  22355994.7384
        29.7504         27.7504
  23652482.8944    4366901.01846   3375005.61346                  23652488.9064
        19.7504         17.5004
 02  7 15 19 19 15.0040000  0  7G 3G 9G14G15G18G21G31
  23475217.3944    9069481.73847   6971800.20446                  23475224.0744
        21.5004         20.2504
  24821521.7544    6458416.68446   2071793.95645                  24821529.9614
        12.7504         11.2504
  21743146.3094    2542434.32748   1977640.19647                  21743150.3404
        28.0004         29.7504
  24208209.1374    1085492.64246    568667.04746                  24208217.6134
        16.5004         14.5004
  23834760.6054   10378472.05547   7955066.44346                  23834766.0904
        21.0004         17.5004
  22367077.7624    6717437.53048   5162587.12347                  22367083.2114
        30.2504         27.5004
  23661563.4344    4414617.36647   3412187.18046                  23661569.7734
        20.0004         17.7504
 02  7 15 19 19 30.0040000  0  7G 3G 9G14G15G18G21G31
  23490606.8324    9150354.41047   7034817.83346                  23490613.6764
        21.2504         20.5004
  24833604.0514    6521912.56846   2121271.29745                  24833611.9884
        12.5004         11.0004
  21749387.3874    2575232.30348   2003197.07547                  21749391.6054
        28.0004         29.5004
  24226591.0664    1182098.46546    643944.23346                  24226599.2034
        14.5004         14.5004
  23850940.2774   10463496.24947   8021319.04346                  23850945.8324
        20.7504         17.5004
  22378187.5824    6775820.26348   5208080.16347                  22378192.8914
        30.0004         27.5004
  23670684.5904    4462550.47746   3449537.66046                  23670690.7194
        19.5004         17.2504
 02  7 15 19 19 45.0040000  0  7G 3G 9G14G15G18G21G31
  23506030.8714    9231405.47347   7097974.46646                  23506037.8714
        21.7504         20.5004
  24845728.9184    6585632.98045   2170923.56845                  24845736.9494
        11.5004         11.5004
  21755668.4494    2608238.59848   2028916.28947                  21755672.5394
        28.0004         29.5004
  24245001.6994    1278844.49246    719330.68646                  24245009.2154
        14.7504         14.0004
  23867139.0194   10548623.15247   8087651.68146                  23867144.3164
        20.5004         17.0004
  22389319.9414    6834321.86548   5253665.82047                  22389325.3794
        29.5004         27.5004
  23679848.3714    4510705.61246   3487061.14446                  23679854.1254
        19.7504         17.7504
 02  7 15 19 20  0.0040000  0  7G 3G 9G14G15G18G21G31
  23521487.6294    9312633.93147   7161269.33246                  23521494.5354
        21.2504         20.5004
  24857897.0664    6649577.06145   2220750.10545                  24857903.7584
        11.7504         11.2504
  21761988.6374    2641452.44647   2054797.22547                  21761992.6094
        27.7504         29.5004
  24263438.7074    1375729.83446    794825.69146                  24263447.4534
        15.0004         14.0004
  23883358.7694   10633851.96847   8154063.72146                  23883364.5594
        22.0004         17.0004
  22400474.4574    6892941.55948   5299343.49747                  22400480.2344
        28.7504         27.2504
  23689053.7384    4559081.95046   3524756.99146                  23689060.2074
        19.5004         17.7504
 02  7 15 19 20 15.0040000  0  7G 3G 9G14G15G18G21G31
  23536978.2074    9394038.46947   7224701.41246                  23536985.1724
        20.5004         20.2504
  24870108.5044    6713743.65546   2270750.05045                  24870115.4574
        13.0004         10.5004
  21768348.3094    2674873.00947   2080839.24147                  21768352.2934
        27.5004         29.2504
  24281900.6914    1472753.34046    870428.35646                  24281909.1804
        14.0004         13.5004
  23899595.3324   10719181.60446   8220554.33846                  23899600.9804
        19.7504         16.5004
  22411651.7154    6951678.46148   5345112.50947                  22411657.6804
        29.0004         27.2504
  23698301.3794    4607678.44046   3562624.38546                  23698307.9884
        19.2504         18.0004
 02  7 15 19 20 30.0040000  0  7G 3G 9G14G15G18G21G31
  23552503.3404    9475622.32447   7288273.21046                  23552510.7974
        20.7504         20.2504
  24882361.3244    6778136.40046   2320926.21445                  24882368.8284
        12.2504         11.0004
  21774748.1294    2708503.84947   2107045.10647                  21774752.3124
        27.5004         29.5004
  24300391.4024    1569918.44646    946141.36046                  24300399.6684
        14.5004         13.7504
  23915853.5904   10804615.64047   8287126.30046                  23915858.4534
        20.5004         16.7504
  22422852.4184    7010536.01948   5390975.53247                  22422858.2424
        29.7504         27.5004
  23707591.3094    4656498.73046   3600666.17946                  23707597.9884
        19.0004         18.0004
 02  7 15 19 20 45.0040000  0  7G 3G 9G14G15G18G21G31
  23568061.6914    9557385.68446   7351984.88746                  23568068.6804
        19.7504         20.2504
  24894657.5664    6842755.74645   2371278.96945                  24894664.1874
        11.7504         10.2504
  21781187.9344    2742345.42147   2133415.18047                  21781192.2694
        27.0004         29.0004
  24318908.6994    1667225.55446   1021965.01146                  24318917.0354
        14.5004         13.7504
  23932131.2304   10890154.56447   8353779.99146                  23932136.8914
        20.0004         16.0004
  22434075.5194    7069514.63048   5436932.88247                  22434080.9224
        29.7504         27.5004
  23716924.6764    4705543.18346   3638882.64246                  23716930.9454
        19.5004         18.0004
 02  7 15 19 21  0.0040000  0  7G 3G 9G14G15G18G21G31
  23583655.0904    9639327.59246   7415835.69446                  23583662.3124
        19.7504         20.2504
  24906997.7854    6907601.02846   2421807.73345                  24907004.8204
        12.0004         10.7504
  21787667.8554    2776397.31447   2159949.13447                  21787672.0274
        27.7504         29.5004
  24337452.4734    1764673.95446   1097898.77546                  24337460.6684
        14.7504         14.0004
  23948427.2304   10975797.67846   8420514.86946                  23948432.3284
        18.5004         16.0004
  22445321.6374    7128613.76648   5482984.15847                  22445327.1094
        29.0004         27.2504
  23726299.9414    4754811.26146   3677273.35046                  23726306.2584
        19.5004         17.7504
 02  7 15 19 21 15.0040000  0  7G 3G 9G14G15G18G21G31
  23599282.3714    9721449.50046   7479826.75646                  23599289.8524
        19.7504         20.0004
  24919381.0984    6972673.95646   2472513.90045                  24919388.6724
        12.7504         10.7504
  21794187.8324    2810661.33747   2186648.39347                  21794192.0164
        27.0004         29.0004
  24356023.9884    1862265.30846   1173943.90946                  24356031.5744
        15.2504         13.7504
  23964745.8164   11061546.69346   8487332.24646                  23964751.3124
        19.5004         16.0004
  22456590.6764    7187835.34548   5529130.84347                  22456596.4534
        28.5004         27.0004
  23735717.9184    4804304.85146   3715839.78346                  23735725.0354
        19.5004         17.7504
 02  7 15 19 21 30.0040000  0  7G 3G 9G14G15G18G21G31
  23614943.9104    9803750.89747   7543957.68246                  23614951.3444
        20.0004         20.0004
  24931807.2624    7037974.20446   2523397.23045                  24931813.2974
        12.7504         11.2504
  21800748.2464    2845137.28447   2213512.77647                  21800752.4184
        27.0004         29.0004
  24374621.7384    1959999.15046   1250100.09346                  24374630.3094
        14.2504         13.5004
  23981082.3714   11147401.24746   8554231.90046                  23981088.3944
        17.5004         15.2504
  22467883.6374    7247179.04948   5575372.68347                  22467889.6024
        28.7504         26.7504
  23745179.7854    4854023.51147   3754581.59546                  23745186.4534
        20.0004         18.2504
 02  7 15 19 21 45.0040000  0  7G 3G 9G14G15G18G21G31
  23630640.4964    9886234.39546   7608230.50346                  23630647.6604
        19.7504         19.5004
  24944276.1444    7103504.56945   2574459.87645                  24944282.9774
        11.5004         11.5004
  21807349.8094    2879828.05147   2240544.56347                  21807354.1214
        27.0004         29.2504
  24393248.1444    2057878.19146   1326369.40846                  24393256.1294
        14.7504         13.5004
  23997441.5904   11233364.20946   8621216.00846                  23997447.5194
        19.7504         16.0004
  22479200.0194    7306647.60248   5621711.80747                  22479205.9264
        28.5004         26.7504
  23754684.2464    4903970.11747   3793501.02746                  23754690.2814
        20.2504         18.0004
 02  7 15 19 22  0.0040000  0  7G 3G 9G14G15G18G21G31
  23646371.2624    9968900.44546   7672645.56546                  23646378.9304
        19.7504         19.7504
  24956791.3874    7169265.71946   2625702.29745                  24956798.4924
        12.5004         11.2504
  21813992.3014    2914734.34047   2267744.27847                  21813996.5554
        27.2504         29.0004
  24411901.0124    2155903.12746   1402752.40646                  24411909.8284
        14.2504         13.5004
  24013820.3634   11319436.38646   8688285.20246                  24013825.9414
        19.5004         16.0004
  22490540.4574    7366241.80048   5668148.83247                  22490546.4694
        28.5004         26.7504
  23764232.1764    4954145.33547   3832598.60446                  23764238.0354
        20.0004         17.5004
 02  7 15 19 22 15.0040000  0  7G 3G 9G14G15G18G21G31
  23662135.8164   10051747.45546   7737201.65046                  23662143.3324
        18.7504         19.5004
  24969349.4494    7235256.37646   2677123.59045                  24969356.9534
        13.0004         11.0004
  21820675.5824    2949855.19447   2295111.19947                  21820679.6954
        27.0004         29.0004
  24430582.2384    2254072.50046   1479247.94046                  24430590.7034
        14.0004         13.2504
  24030220.4344   11405616.38147   8755438.43246                  24030226.0234
        20.7504         16.7504
  22501904.6604    7425960.40748   5714682.80947                  22501910.6374
        29.0004         27.0004
  23773824.1604    5004547.99547   3871873.39546                  23773829.9144
        21.0004         17.7504
 02  7 15 19 22 30.0040000  0  7G 3G 9G14G15G18G21G31
  23677934.6524   10134769.65746   7801894.23946                  23677942.4964
        19.2504         19.5004
  24981949.4804    7301471.03346   2728719.45745                  24981956.4804
        12.7504         11.2504
  21827398.3324    2985185.06047   2322640.97747                  21827402.6804
        27.0004         29.0004
  24449289.3874    2352380.83046   1555851.77146                  24449297.9574
        14.0004         13.2504
  24046639.1844   11491898.64747   8822671.34146                  24046644.5744
        20.0004         16.5004
  22513291.9104    7485797.99148   5761309.49147                  22513297.4414
        30.0004         27.2504
  23783457.2384    5055172.65347   3911321.17946                  23783463.0984
        20.0004         18.0004
 02  7 15 19 22 45.0040000  0  7G 3G 9G14G15G18G21G31
  23693767.6054   10217973.54646   7866728.40746                  23693775.0864
        18.7504         19.5004
  24994592.5744    7367916.38446   2780495.01445                  24994599.7854
        12.0004         11.5004
  21834162.6604    3020730.75047   2350338.92947                  21834166.9614
        27.0004         28.7504
  24468024.5194    2450834.57246   1632568.90246                  24468033.5944
        14.0004         13.0004
  24063078.4964   11578289.89347   8889989.18946                  24063083.9454
        20.0004         16.7504
  22524702.2694    7545761.15248   5808034.02647                  22524708.1174
        29.5004         27.2504
  23793133.8944    5106025.84847   3950947.04346                  23793140.1524
        20.0004         18.5004
 02  7 15 19 23  0.0040000  0  7G 3G 9G14G15G18G21G31
  23709636.5194   10301361.48746   7931705.98046                  23709644.1874
        19.5004         19.5004
  25007281.9344    7434595.16346   2832452.51145                  25007288.9104
        12.5004         11.0004
  21840968.3094    3056495.02547   2378207.20947                  21840972.6334
        26.7504         28.7504
  24486787.9884    2549436.38446   1709401.42446                  24486796.0904
        14.5004         13.0004
  24079540.3944   11664792.82547   8957394.04346                  24079545.8794
        21.5004         16.7504
  22536136.8404    7605852.82048   5854858.70347                  22536142.7464
        28.7504         27.0004
  23802855.3714    5157110.30547   3990753.10746                  23802861.7584
        20.2504         18.5004
 02  7 15 19 23 15.0040000  0  6G 3G 9G14G18G21G31
  23725538.0434   10384923.85346   7996819.47946                  23725545.1844
        19.5004         19.2504
  25020012.8874    7501497.76246   2884584.39645                  25020020.4024
        12.5004         11.2504
  21847813.9184    3092468.51647   2406238.51347                  21847818.1254
        27.2504         29.2504
  24096019.7074   11751397.98046   9024878.56546                  24096025.3914
        19.2504         16.5004
  22547594.7854    7666063.66248   5901776.23447                  22547600.7034
        28.5004         26.7504
  23812618.6054    5208416.55547   4030731.99846                  23812624.7234
        20.2504         18.5004
 02  7 15 19 23 30.0040000  0  7G 3G 9G14G15G18G21G31
  23741473.3484   10468665.41646   8062072.60846                  23741481.1804
        18.7504         19.2504
  25032786.5194    7568629.29845   2936894.66145                  25032794.0824
        11.5004         10.7504
  21854700.1764    3128656.43647   2434436.90947                  21854704.2544
        27.2504         29.0004
  24524395.0984      32970.49256
        14.7504
  24112520.9574   11838110.44346   9092446.69346                  24112526.6174
        19.5004         16.7504
  22559076.1134    7726398.75148   5948790.58447                  22559081.9614
        28.2504         26.5004
  23822424.6294    5259949.89146   4070887.83946                  23822430.9574
        19.7504         18.2504
 02  7 15 19 23 45.0040000  0  7G 3G 9G14G15G18G21G31
  23757442.4494   10552583.48046   8127463.27646                  23757450.3754
        18.5004         19.2504
  25045605.0274    7635987.26245   2989381.36545                  25045612.7304
        11.7504         10.7504
  21861626.7234    3165056.41547   2462800.53947                  21861630.9414
        27.2504         29.0004
  24543238.1684     131995.29446
        14.2504
  24129041.9184   11924927.91446   9160096.65446                  24129047.6484
        19.2504         16.0004
  22570580.7154    7786855.66148   5995899.85347                  22570586.6214
        28.5004         26.7504
  23832274.0904    5311707.87047   4111218.72646                  23832280.2544
        20.2504         18.2504
 02  7 15 19 24  0.0040000  0  7G 3G 9G14G15G18G21G31
  23773444.6684   10636678.26346   8192991.65146                  23773452.5474
        18.5004         19.5004
  25058465.8634    7703572.11845   3042044.88945                  25058472.9574
        11.5004         10.5004
  21868594.0044    3201669.00747   2491329.84447                  21868598.2114
        27.0004         29.2504
  24562108.5664     231161.41546
        13.5004
  24145582.6764   12011850.76446   9227828.72146                  24145588.2304
        19.2504         16.2504
  22582108.5274    7847434.95848   6043104.49647                  22582114.5164
        28.7504         26.7504
  23842166.5354    5363690.78147   4151724.89546                  23842172.7694
        20.2504         18.5004
 02  7 15 19 24 15.0050000  0  7G 3G 9G14G15G18G21G31
  23789481.3134   10720950.71546   8258658.45146                  23789489.1924
        18.7504         19.2504
  25071370.3214    7771383.98545   3094885.31345                  25071379.2784
        11.7504         10.5004
  21875601.3844    3238492.42547   2520023.43447                  21875605.6384
        27.5004         29.2504
  24581008.2674     330471.02746
        15.2504
  24162143.7514   12098880.32846   9295643.95146                  24162149.2594
        18.5004         15.7504
  22593659.8294    7908136.29148   6090404.23647                  22593665.7244
        29.7504         27.2504
  23852100.6654    5415897.85347   4192405.71746                  23852106.9584
        20.0004         18.2504
 02  7 15 19 24 30.0050000  0  7G 3G 9G14G15G18G21G31
  23805550.1424   10805388.74046   8324454.28946                  23805557.8564
        19.2504         19.2504
  25084316.0094    7839413.21346   3147895.06845                  25084324.1814
        12.0004         10.7504
  21882647.6264    3275521.21347   2548877.04947                  21882651.7634
        27.5004         29.2504
  24599930.3454     429910.24646     56827.49856                  24599938.7044
        14.5004         12.7504
  24178722.9384   12186004.57746   9363532.94146                  24178728.6924
        18.5004         15.7504
  22605232.8294    7968951.03648   6137792.34647                  22605238.3604
        30.0004         27.2504
  23862076.8534    5468321.53347   4233255.33746                  23862083.7474
        20.7504         18.7504
 02  7 15 19 24 45.0050000  0  7G 3G 9G14G15G18G21G31
  23821650.8604   10889999.18846   8390384.47546                  23821658.4114
        19.5004         19.2504
  25097304.0634    7907665.74446   3201078.88045                  25097311.7784
        12.2504         10.7504
  21889733.8214    3312759.48647   2577893.89847                  21889738.1104
        27.5004         29.2504
  24618878.5634     529487.14546    134419.84846                  24618887.3214
        14.0004         12.7504
  24195320.9314   12273230.75246   9431501.37346                  24195327.1064
        18.0004         15.7504
  22616827.9154    8029884.86748   6185273.24847                  22616833.6454
        29.0004         27.0004
  23872094.9234    5520966.75547   4274277.57546                  23872101.3924
        20.5004         18.2504
 02  7 15 19 25  0.0050000  0  7G 3G 9G14G15G18G21G31
  23837784.0564   10974779.48046   8456447.00046                  23837791.7474
        19.2504         19.2504
  25110334.7514    7976139.09146   3254434.70545                  25110342.3374
        12.2504         10.5004
  21896859.6034    3350204.86347   2607072.13147                  21896863.6924
        27.7504         29.5004
  24637853.7594     629199.28646    212117.54746                  24637863.2434
        14.2504         12.7504
  24211938.9544   12360556.40146   9499547.32546                  24211944.7314
        18.7504         16.2504
  22628445.0634    8090935.28348   6232844.99547                  22628450.9354
        28.2504         26.5004
  23882154.7514    5573831.27647   4315470.70746                  23882161.4664
        20.5004         18.5004
 02  7 15 19 25 15.0050000  0  7G 3G 9G14G15G18G21G31
  23853949.2744   11059728.44346   8522640.96246                  23853957.0954
        19.0004         19.0004
  25123406.0714    8044832.40345   3307961.97545                  25123413.7634
        11.5004         10.7504
  21904024.5634    3387856.56048   2636411.12447                  21904028.8644
        28.0004         29.5004
  24656853.9074     729045.54446    289919.76446                  24656862.5604
        14.5004         12.7504
  24228575.8764   12447980.76847   9567670.16746                  24228581.3954
        20.0004         16.5004
  22640084.8844    8152101.52948   6280506.99547                  22640090.7314
        28.5004         26.5004
  23892256.0244    5626914.06447   4356833.91446                  23892262.9074
        21.0004         18.5004
 02  7 15 19 25 30.0050000  0  7G 3G 9G14G15G18G21G31
  23870145.5874   11144842.79046   8588963.78946                  23870152.6814
        18.7504         18.7504
  25136519.1494    8113742.59345   3361658.22045                  25136527.6144
        11.5004         11.0004
  21911228.1884    3425711.62447   2665908.58847                  21911232.2434
        27.7504         29.2504
  24675879.5634     829022.82246    367824.06746                  24675888.3334
        14.7504         13.0004
  24245230.1104   12535500.71147   9635867.51046                  24245235.5244
        20.0004         16.2504
  22651745.8994    8213380.69348   6328256.98547                  22651751.6304
        29.2504         26.5004
  23902398.2124    5680212.13547   4398364.86346                  23902404.7744
        20.5004         18.5004
 02  7 15 19 25 45.0050000  0  7G 3G 9G14G15G18G21G31
  23886373.5564   11230120.89746   8655414.22546                  23886380.9314
        18.5004         18.5004
  25149672.5714    8182868.33645   3415522.44445                  25149680.5794
        10.7504         10.5004
  21918470.1264    3463768.97348   2695563.68247                  21918474.2864
        28.0004         29.5004
  24694929.0714     929129.81546    445829.44346                  24694937.5014
        14.2504         13.0004
  24261902.5874   12623115.01546   9704138.37946                  24261908.4464
        19.7504         16.5004
  22663428.2744    8274771.65648   6376094.09147                  22663433.8884
        29.2504         26.5004
  23912581.2824    5733724.19647   4440062.57246                  23912587.9154
        20.5004         18.5004
 02  7 15 19 26  0.0050000  0  7G 3G 9G14G15G18G21G31
  23902633.2904   11315565.59646   8721994.48046                  23902640.5834
        18.7504         18.7504
  25162869.2124    8252212.64045   3469556.92545                  25162876.3534
        11.5004         10.7504
  21925751.3604    3502031.63048   2725378.74847                  21925755.3454
        28.2504         29.2504
  24714004.0244    1029369.40246    523938.13946                  24714012.7704
        14.0004         12.5004
  24278593.2434   12710826.70246   9772485.13546                  24278599.5954
        19.5004         16.7504
  22675132.5244    8336277.25348   6424020.52647                  22675138.0914
        29.7504         26.7504
  23922805.4854    5787453.42347   4481929.48946                  23922812.2004
        20.2504         18.5004
 02  7 15 19 26 15.0050000  0  7G 3G 9G14G15G18G21G31
  23918923.2594   11401170.36646   8788699.45546                  23918931.0444
        19.2504         19.0004
  25176105.3064    8321769.26945   3523756.88645                  25176112.3884
        11.7504         11.0004
  21933070.4384    3540493.37548   2755348.95447                  21933074.4234
        28.0004         29.2504
  24733102.4464    1129735.21146    602145.18546                  24733111.2744
        13.2504         12.7504
  24295302.5244   12798629.59247   9840902.93446                  24295308.3724
        20.5004         17.0004
  22686857.3764    8397891.36148   6472031.51547                  22686862.7084
        30.0004         26.7504
  23933069.7044    5841393.41447   4523960.65146                  23933076.2204
        20.2504         18.5004
 02  7 15 19 26 30.0050000  0  7G 3G 9G14G15G18G21G31
  23935244.3994   11486935.66346   8855529.50646                  23935251.9154
        19.2504         18.7504
  25189382.5404    8391539.00246   3578122.91745                  25189390.5834
        12.5004         11.5004
  21940427.2284    3579154.99247   2785474.90247                  21940431.3064
        27.7504         29.2504
  24752226.4854    1230227.93146    680451.14546                  24752235.5484
        13.5004         13.0004
  24312027.0094   12886524.41546   9909392.39646                  24312033.0794
        18.5004         16.5004
  22698602.9074    8459615.06848   6520127.90747                  22698608.1574
        29.2504         26.5004
  23943374.4544    5895544.94147   4566156.63046                  23943381.0054
        20.2504         18.5004
 02  7 15 19 26 45.0050000  0  7G 3G 9G14G15G18G21G31
  23951595.1884   11572862.26846   8922485.27946                  23951602.6814
        19.2504         19.0004
  25202699.5324    8461522.67046   3632655.64645                  25202707.6344
        12.0004         11.7504
  21947822.6184    3618017.65947   2815757.51247                  21947826.8134
        27.5004         29.2504
  24771374.8924    1330848.51946    758856.70146                  24771384.4934
        14.5004         12.7504
  24328771.9464   12974512.14947   9977954.22646                  24328777.5014
        20.7504         16.7504
  22710369.2744    8521449.30848   6568310.42047                  22710374.9234
        28.5004         26.2504
  23953719.7984    5949908.90347   4608518.15146                  23953726.3134
        20.2504         18.2504
 02  7 15 19 27  0.0050000  0  7G 3G 9G14G15G18G21G31
  23967976.5174   11658945.72546   8989563.24746                  23967984.1494
        19.0004         18.7504
  25216057.3294    8531715.95546   3687351.71145                  25216065.8764
        12.7504         11.0004
  21955255.4784    3657077.25048   2846193.56947                  21955259.4624
        28.0004         29.2504
  24790544.4074    1431592.63646    837358.53446                  24790553.6224
        13.0004         13.0004
  24345531.4384   13062588.62146  10046585.22746                  24345538.2354
        18.5004         16.5004
  22722155.9154    8583389.76248   6616575.70247                  22722161.8334
        28.0004         26.0004
  23964103.9784    6004481.18946   4651041.99446                  23964110.3064
        19.7504         18.5004
 02  7 15 19 27 15.0050000  0  7G 3G 9G14G15G18G21G31
  23984386.1494   11745180.14346   9056758.87546                  23984393.7824
        18.5004         18.7504
  25229453.9074    8602113.33946   3742206.81845                  25229461.4934
        12.7504         11.0004
  21962724.8994    3696328.26548   2876778.78747                  21962728.9074
        28.2504         29.2504
  24809737.8764    1532454.60946    915952.22346                  24809747.0914
        12.5004         12.7504
  24362307.7284   13150748.16746  10115280.95046                  24362313.0714
        19.2504         16.0004
  22733962.1964    8645431.07448   6664919.57147                  22733968.1734
        28.2504         26.0004
  23974527.9464    6059256.20347   4693723.82346                  23974534.9704
        20.2504         18.5004
 02  7 15 19 27 30.0050000  0  7G 3G 9G14G15G18G21G31
  24000826.6034   11831571.86046   9124077.04946                  24000833.8954
        19.2504         19.0004
  25242888.8684    8672721.44945   3797226.11545                  25242895.3954
        11.5004         11.5004
  21970231.6104    3735777.32748   2907518.32847                  21970235.5134
        28.0004         29.5004
  24828954.4384    1633440.92346    994642.78546                  24828963.4424
        12.5004         12.2504
  24379102.3604   13238997.52847  10184046.64946                  24379109.1814
        20.5004         16.5004
  22745788.9934    8707579.96548   6713347.27147                  22745794.6304
        28.7504         26.0004
  23984991.2434    6114240.52847   4736568.73746                  23984997.8174
        20.5004         18.2504
 02  7 15 19 27 45.0050000  0  7G 3G 9G14G15G18G21G31
  24017294.9544   11918114.86346   9191513.12246                  24017302.5754
        18.7504         18.7504
  25256364.1104    8743534.37345   3852405.01645                  25256371.6034
        11.7504         11.2504
  21977775.0874    3775418.78648   2938407.79347                  21977778.9424
        28.0004         29.0004
  24848195.2514    1734545.75546   1073425.68846                  24848204.4314
        13.5004         12.7504
  24395909.3454   13327330.91646  10252877.84146                  24395915.2394
        17.2504         16.0004
  22757634.9234    8769830.53148   6761854.19647                  22757640.2674
        28.7504         26.2504
  23995492.8844    6169428.42147   4779572.28546                  23995499.0244
        20.2504         18.7504
 02  7 15 19 28  0.0050000  0  7G 3G 9G14G15G18G21G31
  24033792.7284   12004810.18746   9259067.87046                  24033800.3724
        18.7504         19.0004
  25269880.3604    8814553.40446   3907744.51645                  25269887.0754
        12.7504         11.2504
  21985355.7284    3815254.13648   2969448.33947                  21985359.5364
        28.2504         29.2504
  24867457.3684    1835770.36146   1152301.93146                  24867465.8684
        13.7504         12.5004
  24412737.0794   13415749.65447  10321775.51946                  24412742.2354
        21.2504         16.7504
  22769500.6344    8832184.18448   6810441.45847                  22769506.0604
        29.2504         26.2504
  24006033.8534    6224821.21747   4822735.48946                  24006040.0994
        20.0004         18.7504
 02  7 15 19 28 15.0050000  0  7G 3G 9G14G15G18G21G31
  24050318.5404   12091651.53746   9326736.41346                  24050325.8334
        19.2504         18.5004
  25283432.1104    8885772.32945   3963239.78845                  25283439.3804
        11.7504         10.5004
  21992971.5874    3855277.18148   3000635.13847                  21992975.3254
        28.0004         29.2504
  24886741.3064    1937108.37246   1231266.53446                  24886749.4074
        13.5004         12.7504
  24429575.9544   13504247.62546  10390734.96546                  24429581.5794
        17.7504         15.7504
  22781384.5404    8894634.95848   6859104.40147                  22781389.9194
        29.2504         26.2504
  24016612.3764    6280412.66547   4866053.48546                  24016619.2704
        20.0004         18.7504
 02  7 15 19 28 30.0050000  0  7G 3G 9G14G15G18G21G31
  24066870.8134   12178640.46246   9394519.95046                  24066877.8134
        18.0004         18.5004
  25297021.5324    8957193.17245   4018892.40945                  25297029.5874
        11.0004         11.0004
  22000623.8764    3895490.08047   3031969.87947                  22000627.6614
        27.7504         29.0004
  24906046.9544    2038561.80546   1310321.09746                  24906054.7514
        13.0004         12.2504
  24446432.7514   13592826.81947  10459757.68846                  24446438.0014
        20.0004         16.5004
  22793286.9234    8957184.92548   6907844.63047                  22793292.4424
        28.0004         25.7504
  24027229.3294    6336204.79647   4909527.86746                  24027235.9154
        20.0004         18.5004
 02  7 15 19 28 45.0050000  0  7G 3G 9G14G15G18G21G31
  24083452.8454   12265774.55846   9462416.59646                  24083460.3024
        18.5004         18.0004
  25310650.5954    9028813.60545   4074700.49745                  25310658.8844
        10.5004         11.2504
  22008311.9154    3935890.57748   3063450.79647                  22008315.7004
        28.0004         29.0004
  24925375.0794    2140128.36546   1389463.80646                  24925383.6734
        13.5004         12.7504
  24463303.9784   13681485.11346  10528842.03946                  24463309.9894
        19.2504         15.7504
  22805208.0094    9019831.81247   6956660.37047                  22805213.8334
        27.2504         25.7504
  24037884.3064    6392195.43847   4953156.92846                  24037890.5874
        20.2504         18.5004
 02  7 15 19 29  0.0050000  0  7G 3G 9G14G15G18G21G31
  24100060.8604   12353051.92346   9530424.90446                  24100068.3644
        18.2504         18.5004
  25324317.5324    9100631.85545   4130662.76945                  25324325.5994
        11.0004         11.2504
  22016035.0954    3976477.19647   3095076.74547                  22016038.9034
        27.7504         29.0004
  24944724.1424    2241806.26246   1468693.22946                  24944733.5914
        14.2504         12.5004
  24480190.5324   13770220.70247  10597986.62846                  24480196.2394
        20.2504         16.0004
  22817147.7594    9082573.95048   7005550.34347                  22817153.5834
        28.2504         25.7504
  24048576.0404    6448382.80447   4996939.27146                  24048582.4854
        20.0004         18.5004
 02  7 15 19 29 15.0050000  0  7G 3G 9G14G15G18G21G31
  24116696.7434   12440471.87846   9598544.29446                  24116704.3764
        18.7504         18.5004
  25338022.4784    9172647.62945   4186778.97145                  25338031.2474
        11.7504         11.0004
  22023793.8844    4017249.63747   3126847.49147                  22023797.7634
        27.2504         28.7504
  24964093.7674    2343595.01846   1548009.09346                  24964102.8534
        14.0004         12.5004
  24497089.1494   13859033.37946  10667191.29746                  24497095.0094
        17.5004         15.5004
  22829105.6574    9145411.16148   7054514.39447                  22829111.2704
        29.0004         26.0004
  24059305.5324    6504766.54746   5040874.64846                  24059311.8604
        19.7504         18.5004
 02  7 15 19 29 30.0050000  0  7G 3G 9G14G15G18G21G31
  24133358.6184   12528035.25046   9666775.44546                  24133365.9814
        17.7504         18.5004
  25351763.8064    9244861.89045   4243049.84245                  25351771.9314
        11.2504         11.5004
  22031588.2284    4058208.99447   3158763.88447                  22031592.0604
        27.5004         28.7504
  24983484.8924    2445495.73746   1627412.17646                  24983494.4234
        14.2504         13.2504
  24514006.4384   13947924.24247  10736456.88046                  24514011.4894
        20.2504         15.7504
  22841081.7204    9208344.75948   7103553.55447                  22841086.9934
        29.5004         26.2504
  24070072.8764    6561347.80847   5084963.93246                  24070079.0874
        20.2504         18.0004
 02  7 15 19 29 45.0050000  0  7G 3G 9G14G15G18G21G31
  24150048.8214   12615737.15346   9735114.54746                  24150055.6304
        19.5004         18.5004
  25365542.1884    9317269.95845   4299471.70345                  25365550.8534
        11.0004         11.2504
  22039417.3534    4099350.66647   3190822.34147                  22039421.1964
        27.2504         28.7504
  25002895.6654    2547503.59846   1706898.73846                  25002905.6184
        13.2504         12.7504
  24530934.7284   14036888.63546  10805779.76846                  24530940.9154
        18.0004         15.7504
  22853074.7824    9271369.83148   7152663.99447                  22853080.1614
        29.2504         26.5004
  24080876.5874    6618121.87047   5129203.44546                  24080882.6454
        20.5004         18.0004
 02  7 15 19 30  0.0050000  0  7G 3G 9G14G15G18G21G31
  24166762.8604   12703574.63946   9803559.30746                  24166769.8374
        17.7504         18.5004
  25379358.3454    9389869.07846   4356042.42645                  25379366.8564
        12.2504         10.7504
  22047280.3374    4140671.98747   3223020.78447                  22047284.1814
        27.0004         28.5004
  25022327.7984    2649615.79646   1786466.60246                  25022337.0014
        14.2504         12.7504
  24547878.6494   14125923.84447  10875157.81046                  24547883.6424
        20.5004         16.0004
  22865084.8684    9334484.02848   7201843.88447                  22865090.1304
        29.5004         26.5004
  24091716.7044    6675086.04647   5173591.09746                  24091722.7634
        20.2504         18.0004
 02  7 15 19 30 15.0050000  0  7G 3G 9G14G15G18G21G31
  24183504.3604   12791549.07546   9872110.75446                  24183511.8064
        18.5004         18.5004
  25393209.5564    9462660.84845   4412763.29445                  25393216.7904
        11.5004         11.0004
  22055178.2674    4182174.81847   3255360.66147                  22055182.2164
        27.2504         28.5004
  25041778.3684    2751833.87046   1866116.97546                  25041787.4194
        13.7504         12.2504
  24564834.7284   14215031.64346  10944592.43346                  24564840.4354
        18.7504         15.2504
  22877112.3134    9397689.01948   7251094.52347                  22877117.6224
        29.0004         26.0004
  24102593.0564    6732241.99347   5218128.19446                  24102599.3134
        20.0004         17.7504
